Warning: Javascript must be enabled to use all the features on this page!


Page Loading - Please Wait...

* We've detected you're using a mobile device. Find our Next Generation Station Page here.
Click to hideNews Bulletins

Streamflow Measurements for the Nation


USGS 11447830 SUTTER SLOUGH A COURTLAND CA


Sacramento County, California
Hydrologic Unit Code 18020163
Latitude  38°19'45", Longitude 121°34'45" NAD83
Gage datum 0 feet above NAVD88
Output formats
HTML table with channel data
HTML table without channel data
Tab-separated data with channel data
Tab-separated data without channel data
Graph of data
Reselect output format
Meas.
Number
  Date       Time Time
Datum
Measurement
Used?
  Who Measuring
Agency
Stream
flow
(ft3/s)
Gage
Height
(ft)
GH
Change
(ft)
Meas.
Duration
(hr)
Meas.
Rated
  Control Flow
Adjust.
Code
 
14522021-08-04 11:58:48PSTYesJEHATFIELD/EUSGS9094.67 Poor NONE
14512021-08-04 11:56:29PSTYesJEHATFIELD/EUSGS10104.66 Poor NONE
14502021-08-04 11:54:08PSTYesJEHATFIELD/EUSGS10804.64 Poor NONE
14492021-08-04 11:51:46PSTYesJEHATFIELD/EUSGS11704.63 Poor NONE
14482021-08-04 11:49:26PSTYesJEHATFIELD/EUSGS12104.61 Poor NONE
14472021-08-04 11:47:11PSTYesJEHATFIELD/EUSGS13904.59 Poor NONE
14462021-08-04 11:44:16PSTYesJEHATFIELD/EUSGS14104.58 Poor NONE
14452021-08-04 11:42:06PSTYesJEHATFIELD/EUSGS15704.57 Poor NONE
14442021-08-04 11:39:56PSTYesJEHATFIELD/EUSGS15704.56 Poor NONE
14432021-08-04 11:37:47PSTYesJEHATFIELD/EUSGS17104.54 Poor NONE
14422021-08-04 11:35:34PSTYesJEHATFIELD/EUSGS17804.53 Poor NONE
14412021-08-04 11:33:26PSTYesJEHATFIELD/EUSGS17704.52 Poor NONE
14402021-08-04 11:30:34PSTYesJEHATFIELD/EUSGS19004.51 Poor NONE
14392021-08-04 11:28:20PSTYesJEHATFIELD/EUSGS20104.50 Poor NONE
14382021-08-04 11:26:06PSTYesJEHATFIELD/EUSGS21504.49 Poor NONE
14372021-08-04 11:23:58PSTYesJEHATFIELD/EUSGS22104.49 Poor NONE
14362021-08-04 11:21:48PSTYesJEHATFIELD/EUSGS21904.48 Poor NONE
14352021-08-04 11:19:41PSTYesJEHATFIELD/EUSGS21904.47 Poor NONE
14342021-05-27 09:51:18PSTYesTVIOLETTE/MIUSGS37905.76 Poor NONE
14332021-05-27 09:47:06PSTYesTVIOLETTE/MIUSGS38005.79 Poor NONE
14322021-05-27 09:42:59PSTYesTVIOLETTE/MIUSGS38105.81 Poor NONE
14312021-05-27 09:38:53PSTYesTVIOLETTE/MIUSGS38305.84 Poor NONE
14302021-05-27 09:34:40PSTYesTVIOLETTE/MIUSGS38005.87 Poor NONE
14292021-05-27 09:31:04PSTYesTVIOLETTE/MIUSGS37605.89 Poor NONE
14282021-03-17 13:01PSTYesTVIOLETTE/MIUSGS35904.60 Poor NONE
14272021-03-17 12:57:22PSTYesTVIOLETTE/MIUSGS34004.62 Poor NONE
14262021-03-17 12:54:17PSTYesTVIOLETTE/MIUSGS34704.63 Poor NONE
14252021-03-17 12:51:09PSTYesTVIOLETTE/MIUSGS36004.65 Poor NONE
14242021-03-17 12:47:52PSTYesTVIOLETTE/MIUSGS35904.67 Poor NONE
14232021-03-17 12:44:29PSTYesTVIOLETTE/MIUSGS34904.68 Poor NONE
14222021-01-08 09:55:40PSTYesMI/TVUSGS1635.28 Poor NONE
14212021-01-08 09:51:35PSTYesMI/TVUSGS2535.25 Poor NONE
14202021-01-08 09:47:33PSTYesMI/TVUSGS2735.21 Poor NONE
14192021-01-08 09:43:31PSTYesMI/TVUSGS3475.18 Poor NONE
14182021-01-08 09:37:51PSTYesMI/TVUSGS4285.13 Unspecified NONE
14172021-01-08 09:33:47PSTYesMI/TVUSGS5025.09 Poor NONE
14162020-10-06 11:38:28PSTYesTV/MIUSGS31305.20 Poor NONE
14152020-10-06 11:34:03PSTYesTV/MIUSGS30905.22 Poor NONE
14142020-10-06 11:29:26PSTYesTV/MIUSGS31205.24 Poor NONE
14132020-10-06 11:25:06PSTYesTV/MIUSGS31505.25 Poor NONE
14122020-10-06 11:21:05PSTYesTV/MIUSGS31305.27 Poor NONE
14112020-10-06 11:17:20PSTYesTV/MIUSGS31105.28 Poor NONE
14102020-08-07 10:29:12PSTYesTV/MIUSGS37805.82 Poor NONE
14092020-08-07 10:25:26PSTYesTV/MIUSGS38505.83 Poor NONE
14082020-08-07 10:21:11PSTYesTV/MIUSGS38205.86 Poor NONE
14072020-08-07 10:17:20PSTYesTV/MIUSGS38005.88 Poor NONE
14062020-08-07 10:12:29PSTYesTV/MIUSGS36605.90 Poor NONE
14052020-08-07 10:08:51PSTYesTV/MIUSGS37705.92 Poor NONE
14042020-05-13 11:33PSTYesAC/NVBUSGS30706.04 Poor NONE
14032020-05-13 11:29:39PSTYesAC/NVBUSGS30106.06 Poor NONE
14022020-05-13 11:26:31PSTYesAC/NVBUSGS29206.07 Poor NONE
14012020-05-13 11:23:18PSTYesAC/NVBUSGS29206.09 Poor NONE
14002020-05-13 11:19:59PSTYesAC/NVBUSGS29606.11 Poor NONE
13992020-05-13 11:17:05PSTYesAC/NVBUSGS28306.12 Poor NONE
13982020-02-25 12:40:40PSTYesTV/MI/EDUSGS35104.56 Unspecified NONE
13972020-02-25 12:37:06PSTYesTV/MI/EDUSGS36304.57 Poor NONE
13962020-02-25 12:33:25PSTYesTV/MI/EDUSGS36004.58 Poor NONE
13952020-02-25 12:29:23PSTYesTV/MI/EDUSGS35204.60 Poor NONE
13942020-02-25 12:25:40PSTYesTV/MI/EDUSGS34404.61 Poor NONE
13932020-02-25 12:22:18PSTYesTV/MI/EDUSGS35804.62 Poor NONE
13922019-12-19 11:47:48PSTYesMI/HRUSGS29806.79 Poor NONE
13912019-12-19 11:43:13PSTYesMI/HRUSGS29806.79 Poor NONE
13902019-12-19 11:38:43PSTYesMI/HRUSGS30906.78 Poor NONE
13892019-12-19 11:33:48PSTYesMI/HRUSGS29806.76 Poor NONE
13882019-12-19 11:16:12PSTYesMI/HRUSGS29006.71 Poor NONE
13872019-12-19 11:12:03PSTYesMI/HRUSGS29006.69 Poor NONE
13862019-10-23 09:07:30PSTYesMI, ACUSGS30704.20 Poor NONE
13852019-10-23 09:02:47PSTYesMI, ACUSGS31304.19 Poor NONE
13842019-10-23 08:46:46PSTYesMI, ACUSGS33004.17 Poor NONE
13832019-10-23 08:41:40PSTYesMI, ACUSGS33904.17 Poor NONE
13822019-10-23 08:22:15PSTYesMI, ACUSGS37604.19 Poor NONE
13812019-10-23 08:17:58PSTYesMI, ACUSGS35704.20 Poor NONE
13802019-08-15 10:23:14PSTYesMI, HRUSGS52406.07 Unspecified NONE
13792019-08-15 10:20:16PSTYesMI, HRUSGS52406.08 Unspecified NONE
13782019-08-15 10:17:07PSTYesMI, HRUSGS51506.10 Unspecified NONE
13772019-08-15 10:13:58PSTYesMI, HRUSGS52406.11 Unspecified NONE
13762019-08-15 10:10:37PSTYesMI, HRUSGS51906.12 Unspecified NONE
13752019-08-15 10:07:19PSTYesMI, HRUSGS51306.14 Unspecified NONE
13742019-08-15 09:30:19PSTYesMI, HRUSGS50506.33 Unspecified NONE
13732019-08-15 09:26:02PSTYesMI, HRUSGS52306.35 Unspecified NONE
13722019-08-15 09:21:24PSTYesMI, HRUSGS52006.37 Unspecified NONE
13712019-08-15 09:16:57PSTYesMI, HRUSGS50806.39 Unspecified NONE
13702019-08-15 09:12:51PSTYesMI, HRUSGS50506.41 Unspecified NONE
13692019-08-15 09:08:54PSTYesMI, HRUSGS52006.42 Unspecified NONE
13682019-07-19 12:22:32PSTYesJH, MIUSGS49005.85 Unspecified NONE
13672019-07-19 12:20:11PSTYesJH, MIUSGS47405.85 Unspecified NONE
13662019-07-19 12:17:39PSTYesJH, MIUSGS46705.86 Unspecified NONE
13652019-07-19 12:15:27PSTYesJH, MIUSGS47005.88 Unspecified NONE
13642019-07-19 12:13:14PSTYesJH, MIUSGS48605.90 Unspecified NONE
13632019-07-19 12:11:08PSTYesJH, MIUSGS46805.90 Unspecified NONE
13622019-07-19 12:06:21PSTYesJH, MIUSGS48905.94 Unspecified NONE
13612019-07-19 12:04:15PSTYesJH, MIUSGS47105.94 Unspecified NONE
13602019-06-11 09:21:53PSTYesMI, HRUSGS91608.81 Unspecified NONE
13592019-06-11 09:18:36PSTYesMI, HRUSGS87108.81 Unspecified NONE
13582019-06-11 09:15:12PSTYesMI, HRUSGS92208.81 Unspecified NONE
13572019-06-11 09:11:47PSTYesMI, HRUSGS88808.80 Unspecified NONE
13562019-06-11 09:08:21PSTYesMI, HRUSGS89408.80 Unspecified NONE
13552019-06-11 09:04:35PSTYesMI, HRUSGS89508.80 Unspecified NONE
13542019-04-15 08:26:04PSTYesMI/ZHUSGS1570013.35 Unspecified NONE
13532019-04-15 08:23:38PSTYesMI/ZHUSGS1540013.39 Unspecified NONE
13522019-04-15 08:21:14PSTYesMI/ZHUSGS1510013.39 Unspecified NONE
13512019-04-15 08:18:56PSTYesMI/ZHUSGS1550013.37 Unspecified NONE
13502019-04-15 08:16:39PSTYesMI/ZHUSGS1560013.38 Unspecified NONE
13492019-04-15 08:14:08PSTYesMI/ZHUSGS1530013.38 Unspecified NONE
13482019-03-21 12:13:17PSTYesMI/ACUSGS1330012.12 Unspecified NONE
13472019-03-21 12:10:27PSTYesMI/ACUSGS1360012.11 Unspecified NONE
13462019-03-21 11:45:52PSTYesMI/ACUSGS1380012.16 Unspecified NONE
13452019-03-21 11:43:04PSTYesMI/ACUSGS1390012.16 Unspecified NONE
13442019-03-21 11:19:54PSTYesMI/ACUSGS1410012.23 Unspecified NONE
13432019-03-21 11:16:55PSTYesMI/ACUSGS1370012.19 Unspecified NONE
13422019-03-21 10:51:13PSTYesMI/ACUSGS1390012.24 Unspecified NONE
13412019-03-21 10:48:03PSTYesMI/ACUSGS1360012.24 Unspecified NONE
13402019-03-21 10:20:14PSTYesMI/ACUSGS1410012.28 Unspecified NONE
13392019-03-21 10:16:56PSTYesMI/ACUSGS1360012.28 Unspecified NONE
13382019-03-21 09:48:58PSTYesMI/ACUSGS1360012.34 Unspecified NONE
13372019-03-21 09:45:23PSTYesMI/ACUSGS1370012.34 Unspecified NONE
13362019-03-21 09:14:54PSTYesMI/ACUSGS1360012.38 Unspecified NONE
13352019-03-21 09:11:09PSTYesMI/ACUSGS1390012.38 Unspecified NONE
13342019-03-21 08:36:56PSTYesMI/ACUSGS1340012.40 Unspecified NONE
13332019-03-21 08:33:29PSTYesMI/ACUSGS1370012.42 Unspecified NONE
13322019-03-21 08:05:45PSTYesMI/ACUSGS1380012.46 Unspecified NONE
13312019-03-21 08:02:11PSTYesMI/ACUSGS1340012.47 Unspecified NONE
13302019-03-21 07:58:43PSTYesMI/ACUSGS1330012.48 Unspecified NONE
13292019-03-21 07:55:13PSTYesMI/ACUSGS1320012.46 Unspecified NONE
13282019-02-19 11:48:57PSTYesMI/TDUSGS1580013.75 Unspecified NONE
13272019-02-19 11:46:22PSTYesMI/TDUSGS1540013.75 Unspecified NONE
13262019-02-19 11:43:31PSTYesMI/TDUSGS1560013.76 Unspecified NONE
13252019-02-19 11:39:52PSTYesMI/TDUSGS1580013.75 Unspecified NONE
13242019-02-19 11:36:25PSTYesMI/TDUSGS1580013.76 Unspecified NONE
13232019-02-19 11:32:54PSTYesMI/TDUSGS1510013.77 Unspecified NONE
13222019-02-19 11:29:28PSTYesMI/TDUSGS1580013.77 Unspecified NONE
13212019-02-19 11:26:26PSTYesMI/TDUSGS1520013.77 Unspecified NONE
13202019-02-05 10:32:32PSTYesMI, TVUSGS92009.46 Good NONE
13192019-02-05 10:28:41PSTYesMI, TVUSGS95709.46 Good NONE
13182019-02-05 10:24:55PSTYesMI, TVUSGS90609.47 Good NONE
13172019-02-05 10:21:24PSTYesMI, TVUSGS90909.47 Good NONE
13162019-02-05 10:17:59PSTYesMI, TVUSGS93209.48 Good NONE
13152019-02-05 10:14:29PSTYesMI, TVUSGS92009.48 Good NONE
13142018-12-03 11:59:56PSTYesMI, JHUSGS28905.93 Fair NONE
13132018-12-03 11:57:38PSTYesMI, JHUSGS26805.92 Fair NONE
13122018-12-03 11:55:23PSTYesMI, JHUSGS28405.90 Fair NONE
13112018-12-03 11:53:07PSTYesMI, JHUSGS27705.88 Fair NONE
13102018-12-03 11:50:44PSTYesMI, JHUSGS29605.86 Fair NONE
13092018-12-03 11:48:26PSTYesMI, JHUSGS27805.84 Fair NONE
13082018-12-03 11:46:10PSTYesMI, JHUSGS29805.82 Fair NONE
13072018-12-03 11:44:02PSTYesMI, JHUSGS28605.80 Fair NONE
13062018-10-01 10:35:03PSTYesMI, ACUSGS19306.20 Good NONE
13052018-10-01 10:31PSTYesMI, ACUSGS18306.19 Good NONE
13042018-10-01 10:27:39PSTYesMI, ACUSGS17806.19 Good NONE
13032018-10-01 10:24:10PSTYesMI, ACUSGS18206.18 Good NONE
13022018-10-01 10:20:57PSTYesMI, ACUSGS17806.17 Good NONE
13012018-10-01 10:17:23PSTYesMI, ACUSGS18306.16 Good NONE
13002018-10-01 10:13:49PSTYesMI, ACUSGS17806.15 Good NONE
12992018-10-01 10:09:29PSTYesMI, ACUSGS16906.14 Good NONE
12982018-10-01 10:06:24PSTYesMI, ACUSGS17806.13 Good NONE
12972018-10-01 10:03:14PSTYesMI, ACUSGS17706.12 Good NONE
12962018-08-20 12:59:55PSTYesMI/HRUSGS23506.11 Good NONE
12952018-08-20 12:57:09PSTYesMI/HRUSGS23006.10 Good NONE
12942018-08-20 12:34:52PSTYesMI/HRUSGS23505.99 Good NONE
12932018-08-20 12:30:56PSTYesMI/HRUSGS24305.97 Good NONE
12922018-08-20 12:10:46PSTYesMI/HRUSGS24505.85 Good NONE
12912018-08-20 12:07:42PSTYesMI/HRUSGS25105.84 Good NONE
12902018-08-20 11:49:19PSTYesMI/HRUSGS25605.73 Good NONE
12892018-08-20 11:45:38PSTYesMI/HRUSGS26705.71 Good NONE
12882018-08-20 11:42:06PSTYesMI/HRUSGS25805.69 Good NONE
12872018-08-20 11:36:33PSTYesMI/HRUSGS26605.66 Good NONE
12862018-08-20 11:15:07PSTYesMI/HRUSGS29205.53 Good NONE
12852018-08-20 11:11:04PSTYesMI/HRUSGS27905.51 Good NONE
12842018-08-20 10:50:05PSTYesMI/HRUSGS31305.39 Good NONE
12832018-08-20 10:46:03PSTYesMI/HRUSGS30705.38 Good NONE
12822018-08-20 10:42:22PSTYesMI/HRUSGS30505.35 Good NONE
12812018-08-20 10:38:36PSTYesMI/HRUSGS30605.34 Good NONE
12802018-08-20 10:17:50PSTYesMI/HRUSGS35105.27 Good NONE
12792018-08-20 10:13:37PSTYesMI/HRUSGS34705.26 Good NONE
12782018-08-20 10:07:16PSTYesMI/HRUSGS33005.25 Good NONE
12772018-08-20 10:03:23PSTYesMI/HRUSGS36405.24 Good NONE
12762018-08-20 09:51:18PSTYesMI/HRUSGS36805.22 Good NONE
12752018-08-20 09:47:09PSTYesMI/HRUSGS37905.21 Good NONE
12742018-08-20 09:42:21PSTYesMI/HRUSGS38005.21 Good NONE
12732018-08-20 09:37:42PSTYesMI/HRUSGS39605.20 Good NONE
12722018-08-20 09:19:54PSTYesMI/HRUSGS41405.20 Good NONE
12712018-08-20 09:15:48PSTYesMI/HRUSGS41405.20 Good NONE
12702018-08-20 09:08:54PSTYesMI/HRUSGS42105.21 Good NONE
12692018-08-20 09:04:34PSTYesMI/HRUSGS41705.22 Good NONE
12682018-08-20 09:00:23PSTYesMI/HRUSGS41205.22 Good NONE
12672018-08-20 08:56:05PSTYesMI/HRUSGS43205.23 Good NONE
12662018-08-20 08:52PSTYesMI/HRUSGS42805.24 Good NONE
12652018-08-20 08:48:20PSTYesMI/HRUSGS44205.25 Good NONE
12642018-08-20 08:29:16PSTYesMI/HRUSGS45305.30 Good NONE
12632018-08-20 08:25:39PSTYesMI/HRUSGS44205.32 Good NONE
12622018-08-20 08:11:50PSTYesMI/HRUSGS45805.37 Good NONE
12612018-08-20 08:08:15PSTYesMI/HRUSGS45405.38 Good NONE
12602018-08-20 08:04:52PSTYesMI/HRUSGS46305.40 Good NONE
12592018-08-20 08:01:46PSTYesMI/HRUSGS47205.41 Good NONE
12582018-08-20 07:57:49PSTYesMI/HRUSGS44205.43 Good NONE
12572018-08-20 07:54:51PSTYesMI/HRUSGS45805.44 Good NONE
12562018-08-14 09:38:26PSTYesMI/HRUSGS44606.83 Good NONE
12552018-08-14 09:33:01PSTYesMI/HRUSGS43906.85 Good NONE
12542018-08-14 09:27:35PSTYesMI/HRUSGS44306.87 Good NONE
12532018-08-14 09:22:41PSTYesMI/HRUSGS42406.89 Good NONE
12522018-08-14 09:17:39PSTYesMI/HRUSGS42206.91 Good NONE
12512018-08-14 09:12:20PSTYesMI/HRUSGS42406.93 Good NONE
12502018-08-14 09:07:09PSTYesMI/HRUSGS41106.95 Good NONE
12492018-08-14 09:01:57PSTYesMI/HRUSGS41106.96 Good NONE
12482018-08-14 08:57:15PSTYesMI/HRUSGS41006.98 Good NONE
12472018-08-14 08:52:36PSTYesMI/HRUSGS39606.99 Good NONE
12462018-08-14 08:48:13PSTYesMI/HRUSGS38607.02 Good NONE
12452018-08-14 08:44:26PSTYesMI/HRUSGS40207.03 Good NONE
12442018-06-25 11:22:18PSTYesMI, JHUSGS43605.19 Good NONE
12432018-06-25 11:19:56PSTYesMI, JHUSGS43805.20 Good NONE
12422018-06-25 11:17:33PSTYesMI, JHUSGS44405.21 Good NONE
12412018-06-25 11:15:06PSTYesMI, JHUSGS43805.21 Good NONE
12402018-06-25 11:12:49PSTYesMI, JHUSGS44405.23 Good NONE
12392018-06-25 11:10:39PSTYesMI, JHUSGS43905.23 Good NONE
12382018-06-25 11:08:36PSTYesMI, JHUSGS44305.25 Good NONE
12372018-06-25 11:06:32PSTYesMI, JHUSGS42505.26 Good NONE
12362018-02-14 13:13:17PSTYesRJ/TVUSGS20905.78 Unspecified NONE
12352018-02-14 13:09:34PSTYesRJ/TVUSGS21105.74 Unspecified NONE
12342018-02-14 13:05:46PSTYesRJ/TVUSGS20805.71 Unspecified NONE
12332018-02-14 13:02:01PSTYesRJ/TVUSGS21105.67 Unspecified NONE
12322018-02-14 12:58:17PSTYesRJ/TVUSGS21205.63 Unspecified NONE
12312018-02-14 12:54:28PSTYesRJ/TVUSGS22005.60 Unspecified NONE
11562017-09-21 11:55:18PSTYesBF, JDUSGS55606.09 Unspecified NONE
11552017-09-21 11:50:33PSTYesBF, JDUSGS52806.11 Unspecified NONE
11542017-09-21 11:45:40PSTYesBF, JDUSGS54706.13 Unspecified NONE
11532017-09-21 11:40:44PSTYesBF, JDUSGS52806.16 Unspecified NONE
11522017-09-21 11:35:58PSTYesBF, JDUSGS53406.18 Unspecified NONE
11512017-09-21 11:31:35PSTYesBF, JDUSGS54106.19 Unspecified NONE
11502017-09-21 11:10:32PSTYesBF, JDUSGS54606.31 Unspecified NONE
11492017-09-21 11:05:54PSTYesBF, JDUSGS53206.33 Unspecified NONE
11482017-09-21 11:01:41PSTYesBF, JDUSGS52406.35 Unspecified NONE
11472017-09-21 10:58:04PSTYesBF, JDUSGS51306.37 Unspecified NONE
11462017-06-27 10:31:38PSTYesBF, RJUSGS43706.82 Fair NONE
11452017-06-27 10:28:02PSTYesBF, RJUSGS42806.84 Fair NONE
11442017-06-27 10:24:32PSTYesBF, RJUSGS43306.85 Fair NONE
11432017-06-27 10:20:43PSTYesBF, RJUSGS43406.87 Fair NONE
11422017-06-27 10:16:43PSTYesBF, RJUSGS42906.90 Fair NONE
11412017-06-27 10:12:55PSTYesBF, RJUSGS42106.92 Fair NONE
11402017-05-11 12:34:24PSTYesBF, CHUSGS94609.16 Fair NONE
11392017-05-11 12:30:05PSTYesBF, CHUSGS102009.17 Fair NONE
11382017-05-11 12:26:05PSTYesBF, CHUSGS96209.18 Fair NONE
11372017-05-11 12:22:14PSTYesBF, CHUSGS98909.19 Fair NONE
11362017-05-11 12:18:53PSTYesBF, CHUSGS95709.19 Fair NONE
11352017-05-11 12:15:40PSTYesBF, CHUSGS92009.20 Fair NONE
11342017-05-11 12:12:44PSTYesBF, CHUSGS93209.21 Fair NONE
11332017-05-11 12:09:46PSTYesBF, CHUSGS94709.22 Fair NONE
11322017-02-08 13:34:19PSTYesCV, RJUSGS1920017.25 Unspecified NONE
11312017-02-08 13:30:52PSTYesCV, RJUSGS2020017.26 Unspecified NONE
11302017-02-08 13:27:11PSTYesCV, RJUSGS2080017.26 Unspecified NONE
11292017-02-08 13:23:26PSTYesCV, RJUSGS1880017.27 Unspecified NONE
11282017-02-08 13:20:08PSTYesCV, RJUSGS1990017.28 Unspecified NONE
11272017-02-08 13:17:17PSTYesCV, RJUSGS2100017.26 Unspecified NONE
11262016-12-07 11:39:09PSTYesRPJ,BTGUSGS17505.93 FairUnspecifedNONE
11252016-12-07 11:32:49PSTYesRPJ,BTGUSGS17105.92 FairUnspecifedNONE
11242016-12-07 11:26:20PSTYesRPJ,BTGUSGS17005.90 FairUnspecifedNONE
11232016-12-07 11:19:40PSTYesRPJ,BTGUSGS16005.87 FairUnspecifedNONE
11222016-12-07 11:13:18PSTYesRPJ,BTGUSGS15405.85 FairUnspecifedNONE
11212016-12-07 11:07:23PSTYesRPJ,BTGUSGS15405.82 PoorUnspecifedNONE
11202016-09-22 11:43:30PSTYesTV, CHUSGS32606.13 Unspecified NONE
11182016-09-22 11:37:30PSTYesTV, CHUSGS32006.16 Unspecified NONE
11192016-09-22 11:36PSTYesTV, CHUSGS32006.15 Unspecified NONE
11172016-09-22 11:34:30PSTYesTV, CHUSGS30206.17 Unspecified NONE
11162016-09-22 11:31PSTYesTV, CHUSGS31506.18 Unspecified NONE
11152016-09-22 11:27:30PSTYesTV, CHUSGS30406.19 Unspecified NONE
11142016-07-18 13:38:26PSTYesND, WFUSGS36605.22 Good NONE
11132016-07-18 13:31:44PSTYesND, WFUSGS36905.20 Good NONE
11122016-07-18 13:25:08PSTYesND, WFUSGS38405.19 Good NONE
11112016-07-18 13:18:10PSTYesND, WFUSGS40005.18 Good NONE
11102016-07-18 13:02:52PSTYesND, WFUSGS41305.17 Good NONE
11092016-07-18 12:56:09PSTYesND, WFUSGS42605.16 Good NONE
11082016-05-04 13:31:52PSTYesTV,BFUSGS14305.60 Fair NONE
11072016-05-04 13:28:15PSTYesTV,BFUSGS14305.58 Fair NONE
11062016-05-04 13:24:38PSTYesTV,BFUSGS15305.54 Fair NONE
11052016-05-04 13:20:41PSTYesTV,BFUSGS15305.53 Fair NONE
11042016-05-04 13:16:42PSTYesTV,BFUSGS15605.49 Fair NONE
11032016-05-04 13:13:19PSTYesTV,BFUSGS16105.47 Fair NONE
11022016-03-15 10:41:26PSTYesJD, CVUSGS1740015.27 Good NONE
11012016-03-15 10:39:33PSTYesJD, CVUSGS1720015.25 Good NONE
11002016-03-15 10:37:32PSTYesJD, CVUSGS1710015.27 Good NONE
10992016-03-15 10:35:33PSTYesJD, CVUSGS1730015.28 Good NONE
10982016-03-15 10:33:38PSTYesJD, CVUSGS1760015.25 Good NONE
10972016-03-15 10:31:34PSTYesJD, CVUSGS1730015.27 Good NONE
10962016-01-25 14:23:14PSTYesJD, RJUSGS104009.30 Fair NONE
10952016-01-25 14:18:37PSTYesJD, RJUSGS105009.30 Fair NONE
10942016-01-25 14:14:06PSTYesJD, RJUSGS103009.29 Fair NONE
10932016-01-25 14:09:33PSTYesJD, RJUSGS102009.28 Fair NONE
10922015-08-18 15:08PSTYesTV/ADUSGS16904.64 UnspecifiedClearNONE
10912015-08-18 15:04PSTYesTV/ADUSGS18704.62 UnspecifiedClearNONE
10902015-08-18 15:00PSTYesTV/ADUSGS20504.59 UnspecifiedClearNONE
10892015-08-18 14:54PSTYesTV/ADUSGS22804.56 UnspecifiedClearNONE
10882015-08-18 14:50PSTYesTV/ADUSGS23404.54 UnspecifiedClearNONE
10872015-08-18 14:46PSTYesTV/ADUSGS24804.53 UnspecifiedClearNONE
10862015-07-08 15:28PSTYesAD/CEUSGS31904.79 UnspecifiedUnspecifedNONE
10852015-07-08 15:24PSTYesAD/CEUSGS33304.81 UnspecifiedUnspecifedNONE
10842015-07-08 15:20PSTYesAD/CEUSGS34504.84 UnspecifiedUnspecifedNONE
10832015-07-08 15:15PSTYesAD/CEUSGS33204.86 UnspecifiedUnspecifedNONE
10822015-07-08 15:10PSTYesAD/CEUSGS34404.89 UnspecifiedUnspecifedNONE
10812015-07-08 15:06PSTYesAD/CEUSGS32704.92 UnspecifiedUnspecifedNONE
10802015-07-08 15:02PSTYesAD/CEUSGS33804.94 UnspecifiedUnspecifedNONE
10792015-07-08 14:57PSTYesAD/CEUSGS33904.95 UnspecifiedUnspecifedNONE
10782015-07-08 11:44PSTYesAD/CEUSGS20405.96 UnspecifiedUnspecifedNONE
10772015-07-08 11:40PSTYesAD/CEUSGS19205.99 UnspecifiedUnspecifedNONE
10762015-07-08 11:22PSTYesAD/CEUSGS13806.09 UnspecifiedUnspecifedNONE
10752015-07-08 11:17PSTYesAD/CEUSGS11606.10 UnspecifiedUnspecifedNONE
10742015-05-13 12:59PSTYesAD/BSUSGS-3975.87 UnspecifiedUnspecifedNONE
10732015-05-13 12:55PSTYesAD/BSUSGS-4185.86 UnspecifiedUnspecifedNONE
10722015-05-13 12:50PSTYesAD/BSUSGS-4125.85 UnspecifiedUnspecifedNONE
10712015-05-13 12:45PSTYesAD/BSUSGS-4535.83 UnspecifiedUnspecifedNONE
10702015-05-13 12:42PSTYesAD/BSUSGS-3965.82 UnspecifiedUnspecifedNONE
10692015-05-13 12:37PSTYesAD/BSUSGS-4125.81 UnspecifiedUnspecifedNONE
10682015-03-19 09:18PSTYesAD/NDUSGS34004.70 UnspecifiedUnspecifedNONE
10672015-03-19 09:11PSTYesAD/NDUSGS32204.74 UnspecifiedUnspecifedNONE
10662015-03-19 09:03PSTYesAD/NDUSGS32904.78 UnspecifiedUnspecifedNONE
10652015-03-19 08:54PSTYesAD/NDUSGS33504.83 UnspecifiedUnspecifedNONE
10642015-03-19 08:47PSTYesAD/NDUSGS32604.88 UnspecifiedUnspecifedNONE
10632015-03-19 08:39PSTYesAD/NDUSGS33104.92 UnspecifiedUnspecifedNONE
10622015-02-11 16:13PSTYesNDUSGS8190 Unspecified NONE
10612015-02-11 16:05PSTYesNDUSGS7850 Unspecified NONE
10602015-02-11 15:55PSTYesNDUSGS7960 Unspecified NONE
10592015-02-11 15:41PSTYesNDUSGS7730 Unspecified NONE
10582015-02-11 15:33PSTYesNDUSGS8110 Unspecified NONE
10572015-02-11 15:22PSTYesNDUSGS7670 Unspecified NONE
10562015-02-11 15:14PSTYesNDUSGS7930 Unspecified NONE
10552015-02-11 15:02PSTYesNDUSGS7730 Unspecified NONE
10542015-02-11 14:49PSTYesNDUSGS7940 Unspecified NONE
10532015-02-11 14:39PSTYesNDUSGS7830 Unspecified NONE
10522015-02-11 14:31PSTYesNDUSGS7800 Unspecified NONE
10512015-02-11 14:21PSTYesNDUSGS7340 Unspecified NONE
10502015-02-11 14:12PSTYesNDUSGS7810 Unspecified NONE
10492015-02-11 14:01PSTYesNDUSGS7720 Unspecified NONE
10482015-02-11 13:54PSTYesNDUSGS7810 Unspecified NONE
10472015-02-11 13:43PSTYesNDUSGS7670 Unspecified NONE
10462015-02-11 13:36PSTYesNDUSGS7900 Unspecified NONE
10452015-02-11 13:29PSTYesNDUSGS7620 Unspecified NONE
10442014-12-22 18:07PSTYesDA/NDUSGS10000 Unspecified NONE
10432014-12-22 17:59PSTYesDA/NDUSGS10500 Unspecified NONE
10422014-12-22 17:51PSTYesDA/NDUSGS10300 Unspecified NONE
10412014-12-22 17:41PSTYesDA/NDUSGS10600 Unspecified NONE
10402014-12-15 14:08PSTYesDA/ADUSGS11100 Unspecified NONE
10392014-12-15 14:03PSTYesDA/ADUSGS11200 Unspecified NONE
10382014-12-15 13:58PSTYesDA/ADUSGS10500 Unspecified NONE
10372014-12-15 13:52PSTYesDA/ADUSGS10900 Unspecified NONE
10362014-12-15 13:46PSTYesDA/ADUSGS10900 Unspecified NONE
10352014-12-15 13:36PSTYesDA/ADUSGS10700 Unspecified NONE
10342014-11-25 14:26:24PSTYesET,DA,SHUSGS1330 Unspecified NONE
10332014-11-25 14:18:56PSTYesET,DA,SHUSGS1460 Unspecified NONE
10322014-11-25 14:13:12PSTYesET,DA,SHUSGS1630 Unspecified NONE
10312014-11-25 14:08:27PSTYesET,DA,SHUSGS1710 Unspecified NONE
10302014-11-25 14:03:52PSTYesET,DA,SHUSGS1830 Unspecified NONE
10292014-11-25 13:43:06PSTYesET,DA,SHUSGS2350 Unspecified NONE
10282014-06-26 14:20PSTYesYESUSGS1920 Unspecified NONE
10272014-06-26 14:16PSTYesYESUSGS1940 Unspecified NONE
10262014-06-26 14:03PSTYesYESUSGS2040 Unspecified NONE
10252014-06-26 13:58PSTYesYESUSGS2230 Unspecified NONE
10242014-06-26 13:45PSTYesYESUSGS2450 Unspecified NONE
10232014-06-26 13:41PSTYesYESUSGS2660 Unspecified NONE
10222014-06-26 13:33PSTYesYESUSGS2690 Unspecified NONE
10212014-01-28 14:52PSTYesYESUSGS-1410 Unspecified NONE
10202014-01-28 14:45PSTYesYESUSGS-1580 Unspecified NONE
10192014-01-28 14:37PSTYesYESUSGS-1810 Unspecified NONE
10182014-01-28 14:27PSTYesYESUSGS-1820 Unspecified NONE
10172014-01-28 14:21PSTYesYESUSGS-1960 Unspecified NONE
10162014-01-28 14:16PSTYesYESUSGS-1930 Unspecified NONE
10152014-01-28 14:11PSTYesYESUSGS-2040 Unspecified NONE
10142014-01-28 14:05PSTYesYESUSGS-2020 Unspecified NONE
10132014-01-28 13:41PSTYesYESUSGS-2020 Unspecified NONE
10122014-01-28 13:37PSTYesYESUSGS-2020 Unspecified NONE
10112014-01-28 13:34PSTYesYESUSGS-2070 Unspecified NONE
10102014-01-28 13:29PSTYesYESUSGS-2070 Unspecified NONE
10092014-01-28 13:24PSTYesYESUSGS-2010 Unspecified NONE
10082014-01-28 13:17PSTYesYESUSGS-1990 Unspecified NONE
10072014-01-28 13:12PSTYesYESUSGS-1950 Unspecified NONE
10062014-01-28 13:07PSTYesYESUSGS-1920 Unspecified NONE
10052014-01-28 13:02PSTYesYESUSGS-1820 Unspecified NONE
10042014-01-28 12:56PSTYesYESUSGS-1830 Unspecified NONE
10032014-01-28 12:50PSTYesYESUSGS-1860 Unspecified NONE
10022014-01-28 12:42PSTYesYESUSGS-1830 Unspecified NONE
10012014-01-24 14:35PSTYesYESUSGS3120 Unspecified NONE
10002014-01-24 14:32PSTYesYESUSGS3020 Unspecified NONE
9992014-01-24 14:29PSTYesYESUSGS3010 Unspecified NONE
9982014-01-24 14:25PSTYesYESUSGS2960 Unspecified NONE
9972014-01-24 14:22PSTYesYESUSGS2890 Unspecified NONE
9962014-01-24 14:20PSTYesYESUSGS3020 Unspecified NONE
9952013-12-20 05:57PSTYesYESUSGS832 Unspecified NONE
9942013-12-20 05:45PSTYesYESUSGS1040 Unspecified NONE
9932013-12-20 05:40PSTYesYESUSGS1120 Unspecified NONE
9922013-12-20 05:21PSTYesYESUSGS1290 Unspecified NONE
9912013-12-20 05:18PSTYesYESUSGS1370 Unspecified NONE
9902013-12-20 05:02PSTYesYESUSGS1500 Unspecified NONE
9892013-12-20 04:58PSTYesYESUSGS1400 Unspecified NONE
9882013-12-20 04:43PSTYesYESUSGS1410 Unspecified NONE
9872013-12-20 04:39PSTYesYESUSGS1500 Unspecified NONE
9862013-12-20 04:25PSTYesYESUSGS1530 Unspecified NONE
9852013-12-20 04:22PSTYesYESUSGS1530 Unspecified NONE
9842013-12-20 04:12PSTYesYESUSGS1580 Unspecified NONE
9832013-12-20 04:07PSTYesYESUSGS1730 Unspecified NONE
9822013-12-20 03:47PSTYesYESUSGS1930 Unspecified NONE
9812013-12-20 03:45PSTYesYESUSGS2080 Unspecified NONE
9802013-12-20 03:28PSTYesYESUSGS2210 Unspecified NONE
9792013-12-20 03:24PSTYesYESUSGS2510 Unspecified NONE
9782013-12-20 03:10PSTYesYESUSGS2660 Unspecified NONE
9772013-12-20 03:07PSTYesYESUSGS2820 Unspecified NONE
9762013-12-20 02:53PSTYesYESUSGS2850 Unspecified NONE
9752013-12-20 02:49PSTYesYESUSGS3080 Unspecified NONE
9742013-12-20 02:33PSTYesYESUSGS3180 Unspecified NONE
9732013-12-20 02:29PSTYesYESUSGS3280 Unspecified NONE
9722013-12-20 02:16PSTYesYESUSGS3350 Unspecified NONE
9712013-12-20 02:11PSTYesYESUSGS3330 Unspecified NONE
9702013-12-20 01:50PSTYesYESUSGS3520 Unspecified NONE
9692013-12-20 01:46PSTYesYESUSGS3470 Unspecified NONE
9682013-12-20 01:27PSTYesYESUSGS3520 Unspecified NONE
9672013-12-20 01:22PSTYesYESUSGS3660 Unspecified NONE
9662013-12-20 00:57PSTYesYESUSGS3530 Unspecified NONE
9652013-12-20 00:50PSTYesYESUSGS3560 Unspecified NONE
9642013-12-20 00:34PSTYesYESUSGS3560 Unspecified NONE
9632013-12-20 00:30PSTYesYESUSGS3390 Unspecified NONE
9622013-12-20 00:05PSTYesYESUSGS3510 Unspecified NONE
9612013-12-20 00:01PSTYesYESUSGS3550 Unspecified NONE
9602013-12-19 23:46PSTYesYESUSGS3580 Unspecified NONE
9592013-12-19 23:43PSTYesYESUSGS3560 Unspecified NONE
9582013-12-19 23:19PSTYesYESUSGS3420 Unspecified NONE
9572013-12-19 23:16PSTYesYESUSGS3490 Unspecified NONE
9562013-12-19 22:55PSTYesYESUSGS3380 Unspecified NONE
9552013-12-19 22:51PSTYesYESUSGS3340 Unspecified NONE
9542013-12-19 22:25PSTYesYESUSGS3340 Unspecified NONE
9532013-12-19 22:21PSTYesYESUSGS3410 Unspecified NONE
9522013-12-19 21:59PSTYesYESUSGS3440 Unspecified NONE
9512013-12-19 21:55PSTYesYESUSGS3390 Unspecified NONE
9502013-12-19 21:24PSTYesYESUSGS3360 Unspecified NONE
9492013-12-19 21:20PSTYesYESUSGS3310 Unspecified NONE
9482013-12-19 20:54PSTYesYESUSGS3110 Unspecified NONE
9472013-12-19 20:50PSTYesYESUSGS3150 Unspecified NONE
9462013-12-19 20:35PSTYesYESUSGS2990 Unspecified NONE
9452013-12-19 20:31PSTYesYESUSGS3000 Unspecified NONE
9442013-12-19 20:16PSTYesYESUSGS2790 Unspecified NONE
9432013-12-19 20:12PSTYesYESUSGS2780 Unspecified NONE
9422013-12-19 19:52PSTYesYESUSGS2490 Unspecified NONE
9412013-12-19 19:48PSTYesYESUSGS2430 Unspecified NONE
9402013-12-19 19:25PSTYesYESUSGS1950 Unspecified NONE
9392013-12-19 19:20PSTYesYESUSGS1790 Unspecified NONE
9382013-12-19 19:03PSTYesYESUSGS1650 Unspecified NONE
9372013-12-19 18:59PSTYesYESUSGS1570 Unspecified NONE
9362013-12-19 18:41PSTYesYESUSGS1270 Unspecified NONE
9352013-12-19 18:36PSTYesYESUSGS1130 Unspecified NONE
9342013-12-19 18:13PSTYesYESUSGS579 Unspecified NONE
9332013-12-19 18:11PSTYesYESUSGS458 Unspecified NONE
9322013-12-19 17:57PSTYesYESUSGS346 Unspecified NONE
9312013-12-19 17:54PSTYesYESUSGS350 Unspecified NONE
9302013-12-19 17:35PSTYesYESUSGS-94.2 Unspecified NONE
9292013-12-19 17:33PSTYesYESUSGS-120 Unspecified NONE
9282013-12-19 17:21PSTYesYESUSGS-17.6 Unspecified NONE
9272013-12-19 17:18PSTYesYESUSGS53.3 Unspecified NONE
9262013-12-19 16:45PSTYesYESUSGS290 Unspecified NONE
9252013-12-19 16:39PSTYesYESUSGS234 Unspecified NONE
9242013-12-19 16:22PSTYesYESUSGS422 Unspecified NONE
9232013-12-19 16:16PSTYesYESUSGS529 Unspecified NONE
9222013-12-19 15:59PSTYesYESUSGS645 Unspecified NONE
9212013-12-19 15:53PSTYesYESUSGS673 Unspecified NONE
9202013-12-19 15:44PSTYesYESUSGS907 Unspecified NONE
9192013-12-19 15:39PSTYesYESUSGS1060 Unspecified NONE
9182013-12-19 15:24PSTYesYESUSGS1110 Unspecified NONE
9172013-12-19 15:19PSTYesYESUSGS946 Unspecified NONE
9162011-12-22 16:22PSTYesYESUSGS3250 Unspecified NONE
9152011-12-22 16:15PSTYesYESUSGS3040 Unspecified NONE
9142011-12-22 16:08PSTYesYESUSGS2960 Unspecified NONE
9132011-12-22 16:01PSTYesYESUSGS3000 Unspecified NONE
9122011-12-22 15:53PSTYesYESUSGS2970 Unspecified NONE
9112011-12-22 15:47PSTYesYESUSGS2890 Unspecified NONE
9102011-03-29 11:10PSTYesYESUSGS18200 Unspecified NONE
9092011-03-29 11:07PSTYesYESUSGS17300 Unspecified NONE
9082011-03-29 11:04PSTYesYESUSGS18300 Unspecified NONE
9072011-03-29 11:01PSTYesYESUSGS17200 Unspecified NONE
9062011-03-17 14:55PSTYesYESUSGS16900 Unspecified NONE
9052011-03-17 14:50PSTYesYESUSGS17200 Unspecified NONE
9042011-03-17 14:45PSTYesYESUSGS17400 Unspecified NONE
9032011-03-17 14:41PSTYesYESUSGS16500 Unspecified NONE
9022011-03-17 14:37PSTYesYESUSGS16900 Unspecified NONE
9012011-03-17 14:32PSTYesYESUSGS16000 Unspecified NONE
9002010-12-22 12:57PSTYesYESUSGS16700 Unspecified NONE
8992010-12-22 12:52PSTYesYESUSGS16000 Unspecified NONE
8982010-12-22 12:48PSTYesYESUSGS16700 Unspecified NONE
8972010-12-22 12:43PSTYesYESUSGS16800 Unspecified NONE
8962010-12-22 12:39PSTYesYESUSGS16700 Unspecified NONE
8952010-12-22 12:35PSTYesYESUSGS17100 Unspecified NONE
8942010-12-22 12:28PSTYesYESUSGS17000 Unspecified NONE
8932010-10-05 17:24PSTYesYESUSGS2960 Unspecified NONE
8922010-10-05 17:20PSTYesYESUSGS2950 Unspecified NONE
8912010-10-05 17:10PSTYesYESUSGS2860 Unspecified NONE
8902010-10-05 17:05PSTYesYESUSGS2870 Unspecified NONE
8892010-10-05 17:01PSTYesYESUSGS2870 Unspecified NONE
8882010-10-05 16:49PSTYesYESUSGS2620 Unspecified NONE
8872010-10-05 16:45PSTYesYESUSGS2640 Unspecified NONE
8862010-10-05 16:41PSTYesYESUSGS2610 Unspecified NONE
8852010-10-05 16:36PSTYesYESUSGS2420 Unspecified NONE
8842010-10-05 16:33PSTYesYESUSGS2390 Unspecified NONE
8832010-10-05 16:29PSTYesYESUSGS2180 Unspecified NONE
8822010-10-05 16:25PSTYesYESUSGS2100 Unspecified NONE
8812010-10-05 16:20PSTYesYESUSGS2040 Unspecified NONE
8802010-10-05 16:16PSTYesYESUSGS1920 Unspecified NONE
8792010-10-05 16:11PSTYesYESUSGS1710 Unspecified NONE
8782010-10-05 16:07PSTYesYESUSGS1610 Unspecified NONE
8772010-10-05 16:02PSTYesYESUSGS1480 Unspecified NONE
8762010-10-05 15:58PSTYesYESUSGS1350 Unspecified NONE
8752010-10-05 15:53PSTYesYESUSGS1250 Unspecified NONE
8742010-10-05 15:49PSTYesYESUSGS1130 Unspecified NONE
8732010-10-05 15:46PSTYesYESUSGS971 Unspecified NONE
8722010-10-05 15:42PSTYesYESUSGS925 Unspecified NONE
8712010-10-05 15:38PSTYesYESUSGS855 Unspecified NONE
8702010-10-05 15:35PSTYesYESUSGS754 Unspecified NONE
8692010-10-05 15:21PSTYesYESUSGS703 Unspecified NONE
8682010-10-05 15:18PSTYesYESUSGS695 Unspecified NONE
8672010-10-05 15:14PSTYesYESUSGS689 Unspecified NONE
8662010-10-05 15:10PSTYesYESUSGS714 Unspecified NONE
8652010-10-05 15:07PSTYesYESUSGS706 Unspecified NONE
8642010-10-05 15:03PSTYesYESUSGS679 Unspecified NONE
8632010-10-05 15:00PSTYesYESUSGS702 Unspecified NONE
8622010-10-05 14:56PSTYesYESUSGS632 Unspecified NONE
8612010-10-05 14:53PSTYesYESUSGS632 Unspecified NONE
8602010-10-05 14:49PSTYesYESUSGS667 Unspecified NONE
8592010-10-05 14:39PSTYesYESUSGS759 Unspecified NONE
8582010-10-05 14:35PSTYesYESUSGS770 Unspecified NONE
8572010-10-05 14:25PSTYesYESUSGS798 Unspecified NONE
8562010-10-05 14:22PSTYesYESUSGS814 Unspecified NONE
8552010-10-05 14:11PSTYesYESUSGS940 Unspecified NONE
8542010-10-05 14:09PSTYesYESUSGS944 Unspecified NONE
8532010-10-05 14:05PSTYesYESUSGS968 Unspecified NONE
8522010-10-05 14:02PSTYesYESUSGS959 Unspecified NONE
8512010-10-05 13:59PSTYesYESUSGS985 Unspecified NONE
8502010-10-05 13:55PSTYesYESUSGS1060 Unspecified NONE
8492010-10-05 13:51PSTYesYESUSGS1130 Unspecified NONE
8482010-10-05 13:47PSTYesYESUSGS1190 Unspecified NONE
8472010-10-05 13:43PSTYesYESUSGS1260 Unspecified NONE
8462010-10-05 13:39PSTYesYESUSGS1310 Unspecified NONE
8452010-10-05 13:36PSTYesYESUSGS1370 Unspecified NONE
8442010-10-05 13:22PSTYesYESUSGS1600 Unspecified NONE
8432010-10-05 13:18PSTYesYESUSGS1550 Unspecified NONE
8422010-10-05 13:13PSTYesYESUSGS1600 Unspecified NONE
8412010-10-05 13:10PSTYesYESUSGS1630 Unspecified NONE
8402010-10-05 13:07PSTYesYESUSGS1650 Unspecified NONE
8392010-10-05 13:04PSTYesYESUSGS1730 Unspecified NONE
8382010-10-05 13:01PSTYesYESUSGS1740 Unspecified NONE
8372010-10-05 12:57PSTYesYESUSGS1790 Unspecified NONE
8362010-10-05 12:53PSTYesYESUSGS1790 Unspecified NONE
8352010-10-05 12:50PSTYesYESUSGS1840 Unspecified NONE
8342010-10-05 12:46PSTYesYESUSGS1810 Unspecified NONE
8332010-10-05 12:32PSTYesYESUSGS1920 Unspecified NONE
8322010-10-05 12:28PSTYesYESUSGS1930 Unspecified NONE
8312010-10-05 12:24PSTYesYESUSGS1950 Unspecified NONE
8302010-10-05 12:14PSTYesYESUSGS2000 Unspecified NONE
8292010-10-05 12:10PSTYesYESUSGS2080 Unspecified NONE
8282010-10-05 12:07PSTYesYESUSGS2130 Unspecified NONE
8272010-10-05 12:04PSTYesYESUSGS2120 Unspecified NONE
8262010-10-05 11:47PSTYesYESUSGS2250 Unspecified NONE
8252010-10-05 11:43PSTYesYESUSGS2300 Unspecified NONE
8242010-10-05 11:40PSTYesYESUSGS2320 Unspecified NONE
8232010-10-05 11:34PSTYesYESUSGS2370 Unspecified NONE
8222010-10-05 11:31PSTYesYESUSGS2430 Unspecified NONE
8212010-10-05 11:26PSTYesYESUSGS2500 Unspecified NONE
8202010-10-05 11:22PSTYesYESUSGS2550 Unspecified NONE
8192010-10-05 11:17PSTYesYESUSGS2790 Unspecified NONE
8182010-10-05 11:11PSTYesYESUSGS2630 Unspecified NONE
8172010-10-05 11:06PSTYesYESUSGS2810 Unspecified NONE
8162010-10-05 11:03PSTYesYESUSGS2900 Unspecified NONE
8152010-10-05 10:58PSTYesYESUSGS3000 Unspecified NONE
8142010-10-05 10:54PSTYesYESUSGS3030 Unspecified NONE
8132010-10-05 10:50PSTYesYESUSGS3120 Unspecified NONE
8122010-10-05 10:47PSTYesYESUSGS3180 Unspecified NONE
8112010-10-05 10:43PSTYesYESUSGS3200 Unspecified NONE
8102010-10-05 10:39PSTYesYESUSGS3340 Unspecified NONE
8092010-10-05 10:03PSTYesYESUSGS3760 Unspecified NONE
8082010-10-05 09:59PSTYesYESUSGS3840 Unspecified NONE
8072010-10-05 09:55PSTYesYESUSGS3900 Unspecified NONE
8062010-10-05 09:51PSTYesYESUSGS3820 Unspecified NONE
8052010-10-05 09:47PSTYesYESUSGS4030 Unspecified NONE
8042010-10-05 09:17PSTYesYESUSGS3990 Unspecified NONE
8032010-10-05 09:13PSTYesYESUSGS4030 Unspecified NONE
8022010-10-05 09:09PSTYesYESUSGS4080 Unspecified NONE
8012010-10-05 09:06PSTYesYESUSGS4010 Unspecified NONE
8002010-10-05 09:01PSTYesYESUSGS4050 Unspecified NONE
7992010-10-05 08:32PSTYesYESUSGS4050 Unspecified NONE
7982010-10-05 08:28PSTYesYESUSGS4000 Unspecified NONE
7972010-10-05 08:24PSTYesYESUSGS4090 Unspecified NONE
7962010-10-05 08:03PSTYesYESUSGS4090 Unspecified NONE
7952010-10-05 07:59PSTYesYESUSGS4060 Unspecified NONE
7942010-10-05 07:54PSTYesYESUSGS4050 Unspecified NONE
7932010-10-05 07:50PSTYesYESUSGS3760 Unspecified NONE
7922010-10-05 07:43PSTYesYESUSGS4010 Unspecified NONE
7912010-10-05 07:38PSTYesYESUSGS4050 Unspecified NONE
7902010-10-05 07:34PSTYesYESUSGS4030 Unspecified NONE
7892010-10-05 07:21PSTYesYESUSGS3870 Unspecified NONE
7882010-10-05 07:17PSTYesYESUSGS3950 Unspecified NONE
7872010-10-05 07:12PSTYesYESUSGS3930 Unspecified NONE
7862010-10-05 07:08PSTYesYESUSGS4040 Unspecified NONE
7852010-01-25 12:01PSTYesYESUSGS12200 Unspecified NONE
7842010-01-25 11:58PSTYesYESUSGS11900 Unspecified NONE
7832010-01-25 11:54PSTYesYESUSGS12200 Unspecified NONE
7822010-01-25 11:50PSTYesYESUSGS12300 Unspecified NONE
7812010-01-25 11:47PSTYesYESUSGS12300 Unspecified NONE
7802010-01-25 11:43PSTYesYESUSGS12100 Unspecified NONE
7792009-07-23 17:39PSTYesYESUSGS2630 Unspecified NONE
7782009-07-23 17:35PSTYesYESUSGS2760 Unspecified NONE
7772009-07-23 17:33PSTYesYESUSGS2590 Unspecified NONE
7762009-07-23 17:31PSTYesYESUSGS2800 Unspecified NONE
7752009-07-23 17:30PSTYesYESUSGS2500 Unspecified NONE
7742009-07-23 17:28PSTYesYESUSGS2610 Unspecified NONE
7732009-07-23 17:26PSTYesYESUSGS2410 Unspecified NONE
7722009-07-23 17:24PSTYesYESUSGS2850 Unspecified NONE
7712009-07-23 17:23PSTYesYESUSGS2650 Unspecified NONE
7702009-07-23 17:21PSTYesYESUSGS2800 Unspecified NONE
7692009-07-23 17:19PSTYesYESUSGS2550 Unspecified NONE
7682009-07-23 17:18PSTYesYESUSGS2780 Unspecified NONE
7672009-07-23 17:16PSTYesYESUSGS2790 Unspecified NONE
7662009-07-23 17:14PSTYesYESUSGS2930 Unspecified NONE
7652009-07-23 17:12PSTYesYESUSGS2710 Unspecified NONE
7642009-07-23 17:11PSTYesYESUSGS2870 Unspecified NONE
7632009-07-23 17:09PSTYesYESUSGS2740 Unspecified NONE
7622009-07-23 17:07PSTYesYESUSGS2800 Unspecified NONE
7612009-07-23 17:05PSTYesYESUSGS2580 Unspecified NONE
7602009-07-23 17:03PSTYesYESUSGS3020 Unspecified NONE
7592009-07-23 17:02PSTYesYESUSGS2660 Unspecified NONE
7582009-07-23 17:00PSTYesYESUSGS3050 Unspecified NONE
7572009-07-23 16:58PSTYesYESUSGS2690 Unspecified NONE
7562009-07-23 16:56PSTYesYESUSGS2970 Unspecified NONE
7552009-07-23 16:55PSTYesYESUSGS2590 Unspecified NONE
7542009-07-23 16:53PSTYesYESUSGS2940 Unspecified NONE
7532009-07-23 16:51PSTYesYESUSGS3000 Unspecified NONE
7522009-07-23 16:50PSTYesYESUSGS3080 Unspecified NONE
7512009-07-23 16:48PSTYesYESUSGS2920 Unspecified NONE
7502009-07-23 16:46PSTYesYESUSGS3050 Unspecified NONE
7492009-07-23 16:44PSTYesYESUSGS2800 Unspecified NONE
7482009-07-23 16:43PSTYesYESUSGS3140 Unspecified NONE
7472009-07-23 16:41PSTYesYESUSGS3050 Unspecified NONE
7462009-07-23 16:39PSTYesYESUSGS3090 Unspecified NONE
7452009-07-23 16:37PSTYesYESUSGS3070 Unspecified NONE
7442009-07-23 16:36PSTYesYESUSGS2980 Unspecified NONE
7432009-07-23 16:34PSTYesYESUSGS3000 Unspecified NONE
7422009-07-23 16:32PSTYesYESUSGS2970 Unspecified NONE
7412009-07-23 16:30PSTYesYESUSGS3200 Unspecified NONE
7402009-07-23 16:29PSTYesYESUSGS2950 Unspecified NONE
7392009-07-23 16:17PSTYesYESUSGS3240 Unspecified NONE
7382009-07-23 16:15PSTYesYESUSGS3400 Unspecified NONE
7372009-07-23 16:12PSTYesYESUSGS3260 Unspecified NONE
7362009-07-23 16:10PSTYesYESUSGS3230 Unspecified NONE
7352009-07-23 16:08PSTYesYESUSGS3320 Unspecified NONE
7342009-07-23 16:07PSTYesYESUSGS3230 Unspecified NONE
7332009-07-23 16:05PSTYesYESUSGS3290 Unspecified NONE
7322009-07-23 16:03PSTYesYESUSGS3290 Unspecified NONE
7312009-07-23 16:01PSTYesYESUSGS3150 Unspecified NONE
7302009-07-23 15:59PSTYesYESUSGS3390 Unspecified NONE
7292009-07-23 15:56PSTYesYESUSGS3250 Unspecified NONE
7282009-07-23 15:50PSTYesYESUSGS3610 Unspecified NONE
7272009-07-23 15:48PSTYesYESUSGS3540 Unspecified NONE
7262009-07-23 15:46PSTYesYESUSGS3480 Unspecified NONE
7252009-07-23 15:44PSTYesYESUSGS3580 Unspecified NONE
7242009-07-23 15:42PSTYesYESUSGS3550 Unspecified NONE
7232009-07-23 15:40PSTYesYESUSGS3570 Unspecified NONE
7222009-07-23 15:37PSTYesYESUSGS3740 Unspecified NONE
7212009-07-23 15:35PSTYesYESUSGS3710 Unspecified NONE
7202009-07-23 15:33PSTYesYESUSGS3790 Unspecified NONE
7192009-07-23 15:31PSTYesYESUSGS3780 Unspecified NONE
7182009-07-23 15:28PSTYesYESUSGS3800 Unspecified NONE
7172009-07-23 15:26PSTYesYESUSGS3820 Unspecified NONE
7162009-07-23 15:24PSTYesYESUSGS3910 Unspecified NONE
7152009-07-23 15:22PSTYesYESUSGS3780 Unspecified NONE
7142009-07-23 15:19PSTYesYESUSGS3940 Unspecified NONE
7132009-07-23 15:17PSTYesYESUSGS3760 Unspecified NONE
7122009-07-23 15:14PSTYesYESUSGS3950 Unspecified NONE
7112009-07-23 15:12PSTYesYESUSGS3990 Unspecified NONE
7102009-07-23 15:09PSTYesYESUSGS4290 Unspecified NONE
7092009-07-23 15:07PSTYesYESUSGS4020 Unspecified NONE
7082009-07-23 15:05PSTYesYESUSGS4090 Unspecified NONE
7072009-07-23 15:02PSTYesYESUSGS3980 Unspecified NONE
7062009-07-23 14:59PSTYesYESUSGS4240 Unspecified NONE
7052009-07-23 14:57PSTYesYESUSGS4030 Unspecified NONE
7042009-07-23 14:54PSTYesYESUSGS4260 Unspecified NONE
7032009-07-23 14:51PSTYesYESUSGS4380 Unspecified NONE
7022009-07-23 14:48PSTYesYESUSGS4290 Unspecified NONE
7012009-07-23 14:46PSTYesYESUSGS4520 Unspecified NONE
7002009-07-23 14:43PSTYesYESUSGS4340 Unspecified NONE
6992009-07-23 14:35PSTYesYESUSGS4590 Unspecified NONE
6982009-07-23 14:31PSTYesYESUSGS4550 Unspecified NONE
6972009-07-23 14:28PSTYesYESUSGS4660 Unspecified NONE
6962009-07-23 14:25PSTYesYESUSGS4590 Unspecified NONE
6952009-07-23 14:23PSTYesYESUSGS4640 Unspecified NONE
6942009-07-23 14:21PSTYesYESUSGS4710 Unspecified NONE
6932009-07-23 14:18PSTYesYESUSGS4740 Unspecified NONE
6922009-07-23 14:14PSTYesYESUSGS4910 Unspecified NONE
6912009-07-23 14:01PSTYesYESUSGS4960 Unspecified NONE
6902009-07-23 13:58PSTYesYESUSGS5110 Unspecified NONE
6892009-07-23 13:47PSTYesYESUSGS5010 Unspecified NONE
6882009-07-23 13:44PSTYesYESUSGS5150 Unspecified NONE
6872009-07-23 13:29PSTYesYESUSGS4880 Unspecified NONE
6862009-07-23 13:25PSTYesYESUSGS5200 Unspecified NONE
6852009-07-23 13:09PSTYesYESUSGS5020 Unspecified NONE
6842009-07-23 13:04PSTYesYESUSGS5160 Unspecified NONE
6832009-07-23 13:01PSTYesYESUSGS5020 Unspecified NONE
6822009-07-23 12:59PSTYesYESUSGS5200 Unspecified NONE
6812009-07-23 12:42PSTYesYESUSGS4950 Unspecified NONE
6802009-07-23 12:39PSTYesYESUSGS5030 Unspecified NONE
6792009-07-23 12:37PSTYesYESUSGS5270 Unspecified NONE
6782009-07-23 12:33PSTYesYESUSGS5310 Unspecified NONE
6772009-07-23 12:31PSTYesYESUSGS4990 Unspecified NONE
6762009-07-23 12:28PSTYesYESUSGS5220 Unspecified NONE
6752009-07-23 12:25PSTYesYESUSGS5160 Unspecified NONE
6742009-07-23 12:22PSTYesYESUSGS3520 Unspecified NONE
6732009-07-23 12:20PSTYesYESUSGS4850 Unspecified NONE
6722009-07-23 12:16PSTYesYESUSGS5190 Unspecified NONE
6712009-07-23 12:14PSTYesYESUSGS4700 Unspecified NONE
6702009-07-23 12:12PSTYesYESUSGS5000 Unspecified NONE
6692009-07-23 12:10PSTYesYESUSGS5120 Unspecified NONE
6682009-07-23 12:07PSTYesYESUSGS5170 Unspecified NONE
6672009-07-23 12:05PSTYesYESUSGS4830 Unspecified NONE
6662009-07-23 12:02PSTYesYESUSGS5230 Unspecified NONE
6652009-07-23 12:00PSTYesYESUSGS5200 Unspecified NONE
6642009-07-23 11:57PSTYesYESUSGS4340 Unspecified NONE
6632009-07-23 11:52PSTYesYESUSGS5290 Unspecified NONE
6622009-07-23 11:50PSTYesYESUSGS4990 Unspecified NONE
6612009-07-23 11:47PSTYesYESUSGS5340 Unspecified NONE
6602009-07-23 10:47PSTYesYESUSGS4900 Unspecified NONE
6592009-07-23 10:44PSTYesYESUSGS5070 Unspecified NONE
6582009-07-23 10:43PSTYesYESUSGS4390 Unspecified NONE
6572009-07-23 10:40PSTYesYESUSGS4720 Unspecified NONE
6562009-07-23 10:39PSTYesYESUSGS4380 Unspecified NONE
6552009-07-23 10:36PSTYesYESUSGS4850 Unspecified NONE
6542009-07-23 10:35PSTYesYESUSGS4660 Unspecified NONE
6532009-07-23 10:32PSTYesYESUSGS5000 Unspecified NONE
6522009-07-23 10:31PSTYesYESUSGS4400 Unspecified NONE
6512009-07-23 10:28PSTYesYESUSGS5040 Unspecified NONE
6502009-07-23 10:26PSTYesYESUSGS4660 Unspecified NONE
6492009-07-23 10:24PSTYesYESUSGS4920 Unspecified NONE
6482009-07-23 10:22PSTYesYESUSGS4100 Unspecified NONE
6472009-07-23 10:18PSTYesYESUSGS4380 Unspecified NONE
6462009-07-23 10:15PSTYesYESUSGS4670 Unspecified NONE
6452009-07-23 10:12PSTYesYESUSGS4780 Unspecified NONE
6442009-07-23 10:09PSTYesYESUSGS4810 Unspecified NONE
6432009-07-23 10:05PSTYesYESUSGS5050 Unspecified NONE
6422009-07-23 10:02PSTYesYESUSGS4400 Unspecified NONE
6412009-07-23 09:58PSTYesYESUSGS5010 Unspecified NONE
6402009-07-23 09:55PSTYesYESUSGS4540 Unspecified NONE
6392009-07-23 09:51PSTYesYESUSGS4630 Unspecified NONE
6382009-07-23 09:49PSTYesYESUSGS4410 Unspecified NONE
6372009-07-23 09:45PSTYesYESUSGS4940 Unspecified NONE
6362009-07-23 09:43PSTYesYESUSGS4780 Unspecified NONE
6352009-07-23 09:40PSTYesYESUSGS4970 Unspecified NONE
6342009-07-23 09:38PSTYesYESUSGS4940 Unspecified NONE
6332009-07-23 09:36PSTYesYESUSGS5090 Unspecified NONE
6322009-07-23 09:28PSTYesYESUSGS4640 Unspecified NONE
6312009-07-23 09:21PSTYesYESUSGS4900 Unspecified NONE
6302009-07-23 09:14PSTYesYESUSGS4960 Unspecified NONE
6292009-07-23 09:10PSTYesYESUSGS4960 Unspecified NONE
6282009-03-06 10:32PSTYesYESUSGS10700 Unspecified NONE
6272009-03-06 10:28PSTYesYESUSGS11200 Unspecified NONE
6262009-03-06 10:23PSTYesYESUSGS10700 Unspecified NONE
6252009-03-06 10:18PSTYesYESUSGS10600 Unspecified NONE
6242009-03-06 10:14PSTYesYESUSGS10800 Unspecified NONE
6232009-03-06 10:11PSTYesYESUSGS10500 Unspecified NONE
6222008-12-10 13:07PSTYesYESUSGS-1930 Unspecified NONE
6212008-12-10 13:04PSTYesYESUSGS-1880 Unspecified NONE
6202008-12-10 13:01PSTYesYESUSGS-1970 Unspecified NONE
6192008-12-10 12:59PSTYesYESUSGS-1970 Unspecified NONE
6182008-12-10 12:56PSTYesYESUSGS-1850 Unspecified NONE
6172008-12-10 12:54PSTYesYESUSGS-1910 Unspecified NONE
6162008-12-10 12:51PSTYesYESUSGS-1910 Unspecified NONE
6152008-12-10 12:49PSTYesYESUSGS-1920 Unspecified NONE
6142008-12-10 12:46PSTYesYESUSGS-1910 Unspecified NONE
6132008-12-10 12:44PSTYesYESUSGS-1930 Unspecified NONE
6122008-12-10 12:41PSTYesYESUSGS-1880 Unspecified NONE
6112008-12-10 12:38PSTYesYESUSGS-1880 Unspecified NONE
6102008-12-10 12:35PSTYesYESUSGS-1840 Unspecified NONE
6092008-12-10 12:33PSTYesYESUSGS-1770 Unspecified NONE
6082008-12-10 12:30PSTYesYESUSGS-1750 Unspecified NONE
6072008-12-10 12:28PSTYesYESUSGS-1760 Unspecified NONE
6062008-12-10 12:25PSTYesYESUSGS-1750 Unspecified NONE
6052008-12-10 12:23PSTYesYESUSGS-1700 Unspecified NONE
6042008-12-10 12:20PSTYesYESUSGS-1670 Unspecified NONE
6032008-12-10 12:18PSTYesYESUSGS-1600 Unspecified NONE
6022008-12-10 12:15PSTYesYESUSGS-1620 Unspecified NONE
6012008-12-10 12:12PSTYesYESUSGS-1630 Unspecified NONE
6002008-12-10 12:09PSTYesYESUSGS-1620 Unspecified NONE
5992008-12-10 12:07PSTYesYESUSGS-1670 Unspecified NONE
5982008-12-10 12:03PSTYesYESUSGS-1630 Unspecified NONE
5972008-12-10 12:00PSTYesYESUSGS-1590 Unspecified NONE
5962008-12-10 11:58PSTYesYESUSGS-1570 Unspecified NONE
5952008-12-10 11:55PSTYesYESUSGS-1490 Unspecified NONE
5942008-12-10 11:53PSTYesYESUSGS-1480 Unspecified NONE
5932008-12-10 11:50PSTYesYESUSGS-1340 Unspecified NONE
5922008-12-10 11:48PSTYesYESUSGS-1220 Unspecified NONE
5912008-12-10 11:45PSTYesYESUSGS-1220 Unspecified NONE
5902008-12-10 11:43PSTYesYESUSGS-1190 Unspecified NONE
5892008-12-10 11:40PSTYesYESUSGS-1190 Unspecified NONE
5882008-12-10 11:38PSTYesYESUSGS-1210 Unspecified NONE
5872008-12-10 11:36PSTYesYESUSGS-1290 Unspecified NONE
5862008-12-10 11:34PSTYesYESUSGS-1240 Unspecified NONE
5852008-12-10 11:31PSTYesYESUSGS-1220 Unspecified NONE
5842008-12-10 11:29PSTYesYESUSGS-1220 Unspecified NONE
5832008-12-10 11:26PSTYesYESUSGS-1120 Unspecified NONE
5822008-12-10 11:24PSTYesYESUSGS-1020 Unspecified NONE
5812008-12-10 11:22PSTYesYESUSGS-928 Unspecified NONE
5802008-12-10 11:20PSTYesYESUSGS-928 Unspecified NONE
5792008-12-10 11:17PSTYesYESUSGS-863 Unspecified NONE
5782008-12-10 11:14PSTYesYESUSGS-778 Unspecified NONE
5772008-12-10 11:12PSTYesYESUSGS-697 Unspecified NONE
5762008-12-10 11:10PSTYesYESUSGS-710 Unspecified NONE
5752008-12-10 11:06PSTYesYESUSGS-568 Unspecified NONE
5742008-08-20 17:48PSTYesYESUSGS-414 Unspecified NONE
5732008-08-20 17:46PSTYesYESUSGS-443 Unspecified NONE
5722008-08-20 17:44PSTYesYESUSGS-523 Unspecified NONE
5712008-08-20 17:41PSTYesYESUSGS-575 Unspecified NONE
5702008-08-20 17:30PSTYesYESUSGS-360 Unspecified NONE
5692008-08-20 17:28PSTYesYESUSGS-146 Unspecified NONE
5682008-08-20 17:26PSTYesYESUSGS-152 Unspecified NONE
5672008-08-20 17:24PSTYesYESUSGS88.8 Unspecified NONE
5662008-08-20 17:22PSTYesYESUSGS-181 Unspecified NONE
5652008-08-20 17:20PSTYesYESUSGS-28.6 Unspecified NONE
5642008-08-20 17:19PSTYesYESUSGS-38.0 Unspecified NONE
5632008-08-20 17:16PSTYesYESUSGS25.6 Unspecified NONE
5622008-08-20 17:14PSTYesYESUSGS-225 Unspecified NONE
5612008-08-20 17:04PSTYesYESUSGS218 Unspecified NONE
5602008-08-20 17:02PSTYesYESUSGS76.0 Unspecified NONE
5592008-08-20 17:00PSTYesYESUSGS268 Unspecified NONE
5582008-08-20 16:58PSTYesYESUSGS260 Unspecified NONE
5572008-08-20 16:56PSTYesYESUSGS350 Unspecified NONE
5562008-08-20 16:54PSTYesYESUSGS535 Unspecified NONE
5552008-08-20 16:52PSTYesYESUSGS737 Unspecified NONE
5542008-08-20 16:50PSTYesYESUSGS472 Unspecified NONE
5532008-08-20 16:48PSTYesYESUSGS487 Unspecified NONE
5522008-08-20 16:46PSTYesYESUSGS611 Unspecified NONE
5512008-08-20 16:43PSTYesYESUSGS707 Unspecified NONE
5502008-08-20 16:41PSTYesYESUSGS775 Unspecified NONE
5492008-08-20 16:39PSTYesYESUSGS788 Unspecified NONE
5482008-08-20 16:37PSTYesYESUSGS817 Unspecified NONE
5472008-08-20 16:35PSTYesYESUSGS694 Unspecified NONE
5462008-08-20 16:32PSTYesYESUSGS931 Unspecified NONE
5452008-08-20 16:30PSTYesYESUSGS788 Unspecified NONE
5442008-08-20 16:28PSTYesYESUSGS941 Unspecified NONE
5432008-08-20 16:26PSTYesYESUSGS896 Unspecified NONE
5422008-08-20 16:24PSTYesYESUSGS970 Unspecified NONE
5412008-08-20 16:22PSTYesYESUSGS927 Unspecified NONE
5402008-08-20 16:19PSTYesYESUSGS1080 Unspecified NONE
5392008-08-20 16:16PSTYesYESUSGS1110 Unspecified NONE
5382008-08-20 16:12PSTYesYESUSGS1240 Unspecified NONE
5372008-08-20 16:03PSTYesYESUSGS1240 Unspecified NONE
5362008-08-20 16:00PSTYesYESUSGS1110 Unspecified NONE
5352008-08-20 15:58PSTYesYESUSGS1190 Unspecified NONE
5342008-08-20 15:55PSTYesYESUSGS1300 Unspecified NONE
5332008-08-20 15:53PSTYesYESUSGS1250 Unspecified NONE
5322008-08-20 15:50PSTYesYESUSGS1350 Unspecified NONE
5312008-08-20 15:47PSTYesYESUSGS1350 Unspecified NONE
5302008-08-20 15:40PSTYesYESUSGS1590 Unspecified NONE
5292008-08-20 15:37PSTYesYESUSGS1510 Unspecified NONE
5282008-08-20 15:30PSTYesYESUSGS1710 Unspecified NONE
5272008-08-20 15:28PSTYesYESUSGS1860 Unspecified NONE
5262008-08-20 15:25PSTYesYESUSGS1710 Unspecified NONE
5252008-08-20 15:21PSTYesYESUSGS1820 Unspecified NONE
5242008-08-20 15:15PSTYesYESUSGS2120 Unspecified NONE
5232008-08-20 15:13PSTYesYESUSGS2080 Unspecified NONE
5222008-08-20 15:03PSTYesYESUSGS2270 Unspecified NONE
5212008-08-20 15:00PSTYesYESUSGS2410 Unspecified NONE
5202008-08-20 14:54PSTYesYESUSGS2600 Unspecified NONE
5192008-08-20 14:51PSTYesYESUSGS2690 Unspecified NONE
5182008-08-20 14:42PSTYesYESUSGS2950 Unspecified NONE
5172008-08-20 14:39PSTYesYESUSGS2850 Unspecified NONE
5162008-08-20 14:33PSTYesYESUSGS3020 Unspecified NONE
5152008-08-20 14:30PSTYesYESUSGS3080 Unspecified NONE
5142008-08-20 14:24PSTYesYESUSGS3180 Unspecified NONE
5132008-08-20 14:22PSTYesYESUSGS3270 Unspecified NONE
5122008-08-20 14:08PSTYesYESUSGS3420 Unspecified NONE
5112008-08-20 14:05PSTYesYESUSGS3320 Unspecified NONE
5102008-08-20 13:59PSTYesYESUSGS3470 Unspecified NONE
5092008-08-20 13:57PSTYesYESUSGS3520 Unspecified NONE
5082008-08-20 13:51PSTYesYESUSGS3500 Unspecified NONE
5072008-08-20 13:48PSTYesYESUSGS3530 Unspecified NONE
5062008-08-20 13:41PSTYesYESUSGS3560 Unspecified NONE
5052008-08-20 13:38PSTYesYESUSGS3510 Unspecified NONE
5042008-08-20 13:33PSTYesYESUSGS3680 Unspecified NONE
5032008-08-20 13:29PSTYesYESUSGS3630 Unspecified NONE
5022008-08-20 13:23PSTYesYESUSGS3670 Unspecified NONE
5012008-08-20 13:19PSTYesYESUSGS3670 Unspecified NONE
5002008-08-20 13:15PSTYesYESUSGS3740 Unspecified NONE
4992008-08-20 13:11PSTYesYESUSGS3840 Unspecified NONE
4982008-08-20 13:07PSTYesYESUSGS3650 Unspecified NONE
4972008-08-20 13:04PSTYesYESUSGS3730 Unspecified NONE
4962008-08-20 12:58PSTYesYESUSGS3830 Unspecified NONE
4952008-08-20 12:56PSTYesYESUSGS3790 Unspecified NONE
4942008-08-20 12:52PSTYesYESUSGS3750 Unspecified NONE
4932008-08-20 12:49PSTYesYESUSGS3840 Unspecified NONE
4922008-08-20 12:40PSTYesYESUSGS3780 Unspecified NONE
4912008-08-20 12:37PSTYesYESUSGS3870 Unspecified NONE
4902008-08-20 12:29PSTYesYESUSGS3840 Unspecified NONE
4892008-08-20 12:25PSTYesYESUSGS3780 Unspecified NONE
4882008-08-20 12:20PSTYesYESUSGS3840 Unspecified NONE
4872008-08-20 12:18PSTYesYESUSGS3770 Unspecified NONE
4862008-08-20 12:14PSTYesYESUSGS3730 Unspecified NONE
4852008-08-20 12:11PSTYesYESUSGS3640 Unspecified NONE
4842008-08-20 12:05PSTYesYESUSGS3610 Unspecified NONE
4832008-08-20 12:01PSTYesYESUSGS3620 Unspecified NONE
4822008-08-20 11:54PSTYesYESUSGS3790 Unspecified NONE
4812008-08-20 11:51PSTYesYESUSGS3690 Unspecified NONE
4802008-08-20 11:43PSTYesYESUSGS3750 Unspecified NONE
4792008-08-20 11:40PSTYesYESUSGS3610 Unspecified NONE
4782008-08-20 11:35PSTYesYESUSGS3710 Unspecified NONE
4772008-08-20 11:29PSTYesYESUSGS3720 Unspecified NONE
4762008-08-20 11:12PSTYesYESUSGS3600 Unspecified NONE
4752008-08-20 11:00PSTYesYESUSGS3490 Unspecified NONE
4742008-08-20 10:53PSTYesYESUSGS3540 Unspecified NONE
4732008-08-20 10:47PSTYesYESUSGS3500 Unspecified NONE
4722008-08-20 10:38PSTYesYESUSGS3530 Unspecified NONE
4712008-08-20 10:35PSTYesYESUSGS3350 Unspecified NONE
4702008-08-20 10:25PSTYesYESUSGS3480 Unspecified NONE
4692008-08-20 10:15PSTYesYESUSGS3360 Unspecified NONE
4682008-08-20 10:12PSTYesYESUSGS3350 Unspecified NONE
4672008-08-20 10:09PSTYesYESUSGS3280 Unspecified NONE
4662008-08-20 10:07PSTYesYESUSGS3320 Unspecified NONE
4652008-08-20 10:04PSTYesYESUSGS3370 Unspecified NONE
4642008-08-20 10:01PSTYesYESUSGS3270 Unspecified NONE
4632008-08-20 09:58PSTYesYESUSGS3370 Unspecified NONE
4622008-08-20 09:55PSTYesYESUSGS3110 Unspecified NONE
4612008-08-20 09:50PSTYesYESUSGS3330 Unspecified NONE
4602008-08-20 09:47PSTYesYESUSGS3400 Unspecified NONE
4592008-08-20 09:42PSTYesYESUSGS3260 Unspecified NONE
4582008-08-20 09:39PSTYesYESUSGS3080 Unspecified NONE
4572008-08-20 09:35PSTYesYESUSGS3050 Unspecified NONE
4562008-08-20 09:32PSTYesYESUSGS3050 Unspecified NONE
4552008-08-20 09:28PSTYesYESUSGS3110 Unspecified NONE
4542008-08-20 09:25PSTYesYESUSGS2970 Unspecified NONE
4532008-08-20 09:22PSTYesYESUSGS3040 Unspecified NONE
4522008-08-20 09:19PSTYesYESUSGS2890 Unspecified NONE
4512008-08-20 09:15PSTYesYESUSGS3050 Unspecified NONE
4502008-08-20 09:13PSTYesYESUSGS2940 Unspecified NONE
4492008-08-20 09:09PSTYesYESUSGS2910 Unspecified NONE
4482008-08-20 09:07PSTYesYESUSGS2760 Unspecified NONE
4472008-08-20 09:03PSTYesYESUSGS2670 Unspecified NONE
4462008-08-20 09:01PSTYesYESUSGS2750 Unspecified NONE
4452008-08-20 08:58PSTYesYESUSGS2690 Unspecified NONE
4442008-08-20 08:55PSTYesYESUSGS2610 Unspecified NONE
4432008-08-20 08:52PSTYesYESUSGS2620 Unspecified NONE
4422008-08-20 08:50PSTYesYESUSGS2550 Unspecified NONE
4412008-08-20 08:47PSTYesYESUSGS2680 Unspecified NONE
4402008-08-20 08:44PSTYesYESUSGS2580 Unspecified NONE
4392008-08-20 08:41PSTYesYESUSGS2470 Unspecified NONE
4382008-08-20 08:39PSTYesYESUSGS2420 Unspecified NONE
4372008-08-20 08:36PSTYesYESUSGS2340 Unspecified NONE
4362008-08-20 08:34PSTYesYESUSGS2350 Unspecified NONE
4352008-08-20 08:31PSTYesYESUSGS2270 Unspecified NONE
4342008-08-20 08:29PSTYesYESUSGS2200 Unspecified NONE
4332008-08-20 08:26PSTYesYESUSGS2160 Unspecified NONE
4322008-08-20 08:24PSTYesYESUSGS2020 Unspecified NONE
4312008-08-20 08:21PSTYesYESUSGS2120 Unspecified NONE
4302008-08-20 08:19PSTYesYESUSGS2100 Unspecified NONE
4292008-08-20 08:16PSTYesYESUSGS2110 Unspecified NONE
4282008-08-20 08:14PSTYesYESUSGS2070 Unspecified NONE
4272008-08-20 08:11PSTYesYESUSGS1810 Unspecified NONE
4262008-08-20 08:09PSTYesYESUSGS1680 Unspecified NONE
4252008-08-20 08:05PSTYesYESUSGS1550 Unspecified NONE
4242008-08-20 08:02PSTYesYESUSGS1510 Unspecified NONE
4232008-08-20 07:46PSTYesYESUSGS-961 Unspecified NONE
4222008-01-30 10:20PSTYesPBx/CRBUSGS93808.93 Unspecified NONE
4212008-01-30 10:16PSTYesPBx/CRBUSGS93308.92 Unspecified NONE
4202008-01-30 10:12PSTYesPBx/CRBUSGS91808.91 Unspecified NONE
4192008-01-30 10:08PSTYesPBx/CRBUSGS94208.90 Unspecified NONE
4182008-01-30 10:04PSTYesPBx/CRBUSGS94108.89 Unspecified NONE
4172008-01-30 10:00PSTYesPBx/CRBUSGS93908.88 Unspecified NONE
4162008-01-07 14:25PSTYesTMG/CRBUSGS75608.48 Unspecified NONE
4152008-01-07 14:22PSTYesTMG/CRBUSGS74708.47 Unspecified NONE
4142008-01-07 14:18PSTYesTMG/CRBUSGS76508.46 Unspecified NONE
4132008-01-07 14:14PSTYesTMG/CRBUSGS74808.44 Unspecified NONE
4122008-01-07 14:11PSTYesTMG/CRBUSGS74408.43 Unspecified NONE
4112008-01-07 14:08PSTYesTMG/CRBUSGS73608.41 Unspecified NONE
4102007-08-29 16:00PSTYesMSx/CBxUSGS24004.97 Unspecified NONE
4092007-08-29 15:57PSTYesMSx/CBxUSGS24804.95 Unspecified NONE
4082007-08-29 15:53PSTYesMSx/CBxUSGS24004.93 Unspecified NONE
4072007-08-29 15:50PSTYesMSx/CBxUSGS24604.90 Unspecified NONE
4062007-08-29 15:46PSTYesMSx/CBxUSGS24604.87 Unspecified NONE
4052007-08-29 15:42PSTYesMSx/CBxUSGS24404.84 Unspecified NONE
4042007-08-29 15:38PSTYesMSx/CBxUSGS24504.80 Unspecified NONE
4032007-08-29 15:34PSTYesMSx/CBxUSGS24604.77 Unspecified NONE
4022007-08-29 15:30PSTYesMSx/CBxUSGS24704.74 Unspecified NONE
4012007-08-29 15:27PSTYesMSx/CBxUSGS25204.72 Unspecified NONE
4002007-08-29 15:23PSTYesMSx/CBxUSGS24904.70 Unspecified NONE
3992007-08-29 15:20PSTYesMSx/CBxUSGS25404.68 Unspecified NONE
3982007-08-29 15:17PSTYesMSx/CBxUSGS25704.66 Unspecified NONE
3972007-08-29 15:14PSTYesMSx/CBxUSGS26004.63 Unspecified NONE
3962007-08-29 15:11PSTYesMSx/CBxUSGS25204.60 Unspecified NONE
3952007-08-29 15:08PSTYesMSx/CBxUSGS27004.58 Unspecified NONE
3942007-08-29 15:05PSTYesMSx/CBxUSGS26004.57 Unspecified NONE
3932007-08-29 15:02PSTYesMSx/CBxUSGS27404.55 Unspecified NONE
3922007-08-29 14:59PSTYesMSx/CBxUSGS27204.54 Unspecified NONE
3912007-08-29 14:56PSTYesMSx/CBxUSGS27504.53 Unspecified NONE
3902007-08-29 14:53PSTYesMSx/CBxUSGS28104.51 Unspecified NONE
3892007-08-29 14:50PSTYesMSx/CBxUSGS28504.50 Unspecified NONE
3882007-08-29 14:47PSTYesMSx/CBxUSGS28704.48 Unspecified NONE
3872007-08-29 14:44PSTYesMSx/CBxUSGS30204.46 Unspecified NONE
3862007-08-29 14:41PSTYesMSx/CBxUSGS30304.44 Unspecified NONE
3852007-08-29 14:38PSTYesMSx/CBxUSGS30404.42 Unspecified NONE
3842007-08-29 14:35PSTYesMSx/CBxUSGS30904.40 Unspecified NONE
3832007-08-29 14:32PSTYesMSx/CBxUSGS32004.39 Unspecified NONE
3822007-08-29 14:21PSTYesMSx/CBxUSGS33704.35 Unspecified NONE
3812007-08-29 14:18PSTYesMSx/CBxUSGS33604.35 Unspecified NONE
3802007-08-29 14:12PSTYesMSx/CBxUSGS33604.35 Unspecified NONE
3792007-08-29 14:08PSTYesMSx/CBxUSGS33704.34 Unspecified NONE
3782007-08-29 14:05PSTYesMSx/CBxUSGS34504.32 Unspecified NONE
3772007-08-29 14:01PSTYesMSx/CBxUSGS36404.32 Unspecified NONE
3762007-08-29 13:57PSTYesMSx/CBxUSGS36204.32 Unspecified NONE
3752007-08-29 13:53PSTYesMSx/CBxUSGS38004.31 Unspecified NONE
3742007-08-29 13:49PSTYesMSx/CBxUSGS37804.31 Unspecified NONE
3732007-08-29 13:38PSTYesMSx/CBxUSGS39604.31 Unspecified NONE
3722007-08-29 13:33PSTYesMSx/CBxUSGS38804.31 Unspecified NONE
3712007-08-29 13:29PSTYesMSx/CBxUSGS41304.31 Unspecified NONE
3692007-08-29 13:21PSTYesMSx/CBxUSGS40104.32 Unspecified NONE
3682007-08-29 13:16PSTYesMSx/CBxUSGS41204.32 Unspecified NONE
3672007-08-29 13:10PSTYesMSx/CBxUSGS41004.33 Unspecified NONE
3662007-08-29 13:05PSTYesMSx/CBxUSGS41904.35 Unspecified NONE
3652007-08-29 13:01PSTYesMSx/CBxUSGS43804.37 Unspecified NONE
3632007-08-29 12:52PSTYesMSx/CBxUSGS42204.39 Unspecified NONE
3622007-08-29 12:47PSTYesMSx/CBxUSGS42704.41 Unspecified NONE
3612007-08-29 12:43PSTYesMSx/CBxUSGS42604.43 Unspecified NONE
3602007-08-29 12:39PSTYesMSx/CBxUSGS43704.45 Unspecified NONE
3592007-08-29 12:34PSTYesMSx/CBxUSGS43604.47 Unspecified NONE
3582007-08-29 12:28PSTYesMSx/CBxUSGS43904.49 Unspecified NONE
3572007-08-29 12:24PSTYesMSx/CBxUSGS44204.51 Unspecified NONE
3562007-08-29 12:20PSTYesMSx/CBxUSGS43204.52 Unspecified NONE
3552007-08-29 12:16PSTYesMSx/CBxUSGS45304.54 Unspecified NONE
3542007-08-29 12:11PSTYesMSx/CBxUSGS45204.56 Unspecified NONE
3532007-08-29 12:06PSTYesMSx/CBxUSGS44504.58 Unspecified NONE
3522007-08-29 12:02PSTYesMSx/CBxUSGS44004.59 Unspecified NONE
3512007-08-29 11:58PSTYesMSx/CBxUSGS44404.61 Unspecified NONE
3502007-08-29 11:54PSTYesMSx/CBxUSGS44104.63 Unspecified NONE
3492007-08-29 11:50PSTYesMSx/CBxUSGS44004.64 Unspecified NONE
3482007-08-29 11:45PSTYesMSx/CBxUSGS44304.66 Unspecified NONE
3472007-08-29 11:40PSTYesMSx/CBxUSGS44904.69 Unspecified NONE
3462007-08-29 11:36PSTYesMSx/CBxUSGS43504.72 Unspecified NONE
3452007-08-29 11:31PSTYesMSx/CBxUSGS44504.75 Unspecified NONE
3442007-08-29 11:21PSTYesMSx/CBxUSGS44804.81 Unspecified NONE
3432007-05-31 15:03PSTYes???USGS22404.54 Unspecified NONE
3422007-05-31 15:00PSTYes???USGS21604.52 Unspecified NONE
3412007-05-31 14:57PSTYes???USGS22904.50 Unspecified NONE
3402007-05-31 14:54PSTYes???USGS22504.48 Unspecified NONE
3392007-05-31 14:52PSTYes???USGS23404.46 Unspecified NONE
3382007-05-31 14:49PSTYes???USGS23304.44 Unspecified NONE
3372007-05-31 14:28PSTYes???USGS26004.28 Unspecified NONE
3362007-05-31 14:25PSTYes???USGS26904.26 Unspecified NONE
3352007-05-31 14:22PSTYes???USGS27004.26 Unspecified NONE
3342007-05-31 14:20PSTYes???USGS28804.26 Unspecified NONE
3332007-05-31 13:57PSTYes???USGS29204.18 Unspecified NONE
3322007-05-31 13:54PSTYes???USGS30204.17 Unspecified NONE
3312007-05-31 13:52PSTYes???USGS29604.16 Unspecified NONE
3302007-05-31 13:49PSTYes???USGS29704.15 Unspecified NONE
3292007-05-31 13:46PSTYes???USGS30304.14 Unspecified NONE
3282007-05-31 13:44PSTYes???USGS32004.13 Unspecified NONE
3272007-05-31 13:41PSTYes???USGS30404.13 Unspecified NONE
3262007-05-31 13:24PSTYes???USGS33304.11 Unspecified NONE
3252007-05-31 13:21PSTYes???USGS33904.11 Unspecified NONE
3242007-05-31 13:18PSTYes???USGS33204.10 Unspecified NONE
3232007-05-31 13:15PSTYes???USGS34404.10 Unspecified NONE
3222007-05-31 13:12PSTYes???USGS33904.11 Unspecified NONE
3212007-05-31 13:09PSTYes???USGS35704.12 Unspecified NONE
3202007-05-31 13:07PSTYes???USGS34704.12 Unspecified NONE
3192007-05-31 13:04PSTYes???USGS35604.13 Unspecified NONE
3182007-05-31 13:01PSTYes???USGS34604.14 Unspecified NONE
3172007-05-31 12:59PSTYes???USGS36304.15 Unspecified NONE
3162007-02-07 10:20PSTYes???USGS26705.77 Unspecified NONE
3152007-02-07 10:17PSTYes???USGS28105.78 Unspecified NONE
3142007-02-07 10:14PSTYes???USGS26605.79 Unspecified NONE
3132007-02-07 10:11PSTYes???USGS27705.80 Unspecified NONE
3122007-02-07 09:59PSTYes???USGS25605.85 Unspecified NONE
3112007-02-07 09:57PSTYes???USGS27405.86 Unspecified NONE
3102007-02-07 09:55PSTYes???USGS25905.86 Unspecified NONE
3092007-02-07 09:52PSTYes???USGS26805.87 Unspecified NONE
3082007-02-07 09:31PSTYes???USGS24105.94 Unspecified NONE
3072007-02-07 09:29PSTYes???USGS25005.95 Unspecified NONE
3062007-02-07 09:26PSTYes???USGS23805.96 Unspecified NONE
3052007-02-07 09:24PSTYes???USGS25005.96 Unspecified NONE
3042007-02-07 09:21PSTYes???USGS23505.97 Unspecified NONE
3032007-02-07 09:18PSTYes???USGS24705.98 Unspecified NONE
3022007-02-07 09:16PSTYes???USGS22105.99 Unspecified NONE
3012007-02-07 09:13PSTYes???USGS23906.00 Unspecified NONE
3002007-02-07 09:10PSTYes???USGS22706.01 Unspecified NONE
2992007-02-07 09:07PSTYes???USGS23306.01 Unspecified NONE
2982006-10-24 16:32PSTYes???USGS-7796.21 Unspecified NONE
2972006-10-24 16:27PSTYes???USGS-7306.18 Unspecified NONE
2962006-10-24 16:24PSTYes???USGS-7026.17 Unspecified NONE
2952006-10-24 16:19PSTYes???USGS-7226.14 Unspecified NONE
2942006-10-24 16:15PSTYes???USGS-6566.12 Unspecified NONE
2932006-10-24 16:11PSTYes???USGS-6436.10 Unspecified NONE
2922006-10-24 16:06PSTYes???USGS-6156.07 Unspecified NONE
2912006-10-24 16:01PSTYes???USGS-5986.04 Unspecified NONE
2902006-10-24 15:57PSTYes???USGS-5446.01 Unspecified NONE
2892006-10-24 15:53PSTYes???USGS-4415.98 Unspecified NONE
2882006-10-24 15:49PSTYes???USGS-4115.95 Unspecified NONE
2872006-10-24 15:44PSTYes???USGS-3495.92 Unspecified NONE
2862006-10-24 15:40PSTYes???USGS-3215.88 Unspecified NONE
2852006-10-24 15:36PSTYes???USGS-2895.85 Unspecified NONE
2842006-10-24 15:32PSTYes???USGS-2595.81 Unspecified NONE
2832006-10-24 15:27PSTYes???USGS-1985.77 Unspecified NONE
2822006-10-24 15:23PSTYes???USGS-1195.74 Unspecified NONE
2812006-10-24 15:19PSTYes???USGS-74.05.70 Unspecified NONE
2802006-10-24 15:15PSTYes???USGS-15.05.67 Unspecified NONE
2792006-10-24 15:10PSTYes???USGS55.05.64 Unspecified NONE
2782006-10-24 15:06PSTYes???USGS1125.61 Unspecified NONE
2772006-10-24 15:02PSTYes???USGS1915.58 Unspecified NONE
2762006-10-24 14:48PSTYes???USGS4725.47 Unspecified NONE
2752006-10-24 14:44PSTYes???USGS4955.45 Unspecified NONE
2742006-09-28 14:50PSTYes???USGS33105.34 Unspecified NONE
2732006-09-28 14:46PSTYes???USGS34405.35 Unspecified NONE
2722006-09-28 14:41PSTYes???USGS34205.35 Unspecified NONE
2712006-09-28 14:36PSTYes???USGS34405.35 Unspecified NONE
2702006-09-28 14:32PSTYes???USGS35305.34 Unspecified NONE
2692006-09-28 14:28PSTYes???USGS34405.34 Unspecified NONE
2682006-09-28 14:24PSTYes???USGS34905.34 Unspecified NONE
2672006-09-28 14:19PSTYes???USGS35405.34 Unspecified NONE
2662006-09-28 14:15PSTYes???USGS35805.34 Unspecified NONE
2652006-09-28 14:11PSTYes???USGS35605.35 Unspecified NONE
2642006-09-28 14:08PSTYes???USGS35505.36 Unspecified NONE
2632006-09-28 14:04PSTYes???USGS36405.35 Unspecified NONE
2622006-09-28 14:00PSTYes???USGS35605.36 Unspecified NONE
2612006-09-28 13:56PSTYes???USGS36305.37 Unspecified NONE
2602006-09-28 13:52PSTYes???USGS35305.38 Unspecified NONE
2592006-09-28 13:47PSTYes???USGS36505.38 Unspecified NONE
2582006-09-28 13:42PSTYes???USGS37105.39 Unspecified NONE
2572006-09-28 13:38PSTYes???USGS36205.39 Unspecified NONE
2562006-09-28 13:33PSTYes???USGS36605.40 Unspecified NONE
2552006-09-28 13:29PSTYes???USGS36805.41 Unspecified NONE
2542006-09-28 13:25PSTYes???USGS35605.42 Unspecified NONE
2532006-09-28 13:20PSTYes???USGS36605.43 Unspecified NONE
2522006-09-28 13:16PSTYes???USGS36305.43 Unspecified NONE
2512006-09-28 13:10PSTYes???USGS37605.44 Unspecified NONE
2502006-09-28 13:04PSTYes???USGS35805.46 Unspecified NONE
2492006-09-28 12:57PSTYes???USGS35605.47 Unspecified NONE
2482006-09-28 12:51PSTYes???USGS33805.48 Unspecified NONE
2472006-09-28 12:46PSTYes???USGS34305.49 Unspecified NONE
2462006-09-28 12:41PSTYes???USGS34005.50 Unspecified NONE
2452006-09-28 12:37PSTYes???USGS34205.51 Unspecified NONE
2442006-09-28 12:33PSTYes???USGS34505.52 Unspecified NONE
2432006-09-28 12:28PSTYes???USGS34305.52 Unspecified NONE
2422006-09-28 12:23PSTYes???USGS33605.53 Unspecified NONE
2412006-09-28 12:18PSTYes???USGS33905.54 Unspecified NONE
2402006-09-28 12:13PSTYes???USGS34005.55 Unspecified NONE
2392006-09-28 11:57PSTYes???USGS33305.59 Unspecified NONE
2382006-09-28 11:52PSTYes???USGS31905.60 Unspecified NONE
2372006-09-28 11:41PSTYes???USGS32005.62 Unspecified NONE
2362006-09-28 11:36PSTYes???USGS31105.63 Unspecified NONE
2352006-09-28 11:32PSTYes???USGS31005.64 Unspecified NONE
2342006-09-28 11:27PSTYes???USGS30405.65 Unspecified NONE
2332006-09-28 11:22PSTYes???USGS31405.66 Unspecified NONE
2322006-09-28 11:17PSTYes???USGS30805.66 Unspecified NONE
2312006-09-28 11:12PSTYes???USGS30905.67 Unspecified NONE
2302006-09-28 11:07PSTYes???USGS30205.68 Unspecified NONE
2292006-09-28 11:02PSTYes???USGS29805.69 Unspecified NONE
2282006-09-28 10:38PSTYes???USGS28505.72 Unspecified NONE
2272006-09-28 10:33PSTYes???USGS28705.72 Unspecified NONE
2262006-09-28 10:27PSTYes???USGS28105.72 Unspecified NONE
2252006-09-28 10:20PSTYes???USGS27805.72 Unspecified NONE
2242006-09-28 10:14PSTYes???USGS27705.72 Unspecified NONE
2232006-09-28 10:08PSTYes???USGS26905.71 Unspecified NONE
2222006-09-28 09:57PSTYes???USGS27505.72 Unspecified NONE
2212006-09-28 09:49PSTYes???USGS26805.72 Unspecified NONE
2202006-03-07 12:11PSTYes???USGS1650013.90 Unspecified NONE
2192006-03-07 12:07PSTYes???USGS1660013.90 Unspecified NONE
2182006-03-07 12:03PSTYes???USGS1670013.90 Unspecified NONE
2172006-03-07 11:58PSTYes???USGS1650013.90 Unspecified NONE
2162006-03-07 11:53PSTYes???USGS1660013.90 Unspecified NONE
2152006-03-07 11:48PSTYes???USGS1700013.90 Unspecified NONE
2142006-01-04 13:09PSTYes???USGS2040017.23 Unspecified NONE
2132006-01-04 13:02PSTYes???USGS1990017.23 Unspecified NONE
2122006-01-04 12:55PSTYes???USGS2050017.22 Unspecified NONE
2112006-01-04 12:50PSTYes???USGS2040017.23 Unspecified NONE
2102005-07-19 16:20PSTYes???USGS32006.59 Unspecified NONE
2092005-07-19 16:16PSTYes???USGS32206.60 Unspecified NONE
2082005-07-19 16:13PSTYes???USGS31606.60 Unspecified NONE
2072005-07-19 16:08PSTYes???USGS32206.60 Unspecified NONE
2062005-07-19 16:03PSTYes???USGS31506.61 Unspecified NONE
2052005-07-19 15:59PSTYes???USGS32906.61 Unspecified NONE
2042005-07-19 15:55PSTYes???USGS32206.62 Unspecified NONE
2032005-07-19 15:49PSTYes???USGS32806.62 Unspecified NONE
2022005-07-19 15:45PSTYes???USGS32206.62 Unspecified NONE
2012005-07-19 15:42PSTYes???USGS32206.63 Unspecified NONE
2002005-07-19 15:38PSTYes???USGS33006.63 Unspecified NONE
1992005-07-19 15:32PSTYes???USGS32606.64 Unspecified NONE
1982005-07-19 15:28PSTYes???USGS33006.64 Unspecified NONE
1972005-07-19 15:24PSTYes???USGS32606.64 Unspecified NONE
1962005-07-19 15:18PSTYes???USGS32906.65 Unspecified NONE
1952005-07-19 15:12PSTYes???USGS34306.65 Unspecified NONE
1942005-07-19 15:08PSTYes???USGS33606.66 Unspecified NONE
1932005-07-19 15:03PSTYes???USGS34506.66 Unspecified NONE
1922005-07-19 14:59PSTYes???USGS34806.67 Unspecified NONE
1912005-07-19 14:55PSTYes???USGS35406.67 Unspecified NONE
1902005-07-19 14:51PSTYes???USGS35606.67 Unspecified NONE
1892005-07-19 14:47PSTYes???USGS36906.68 Unspecified NONE
1882005-07-19 14:43PSTYes???USGS36506.68 Unspecified NONE
1872005-07-19 14:19PSTYes???USGS39206.70 Unspecified NONE
1862005-07-19 14:15PSTYes???USGS38406.70 Unspecified NONE
1852005-07-19 14:12PSTYes???USGS40006.71 Unspecified NONE
1842005-07-19 14:08PSTYes???USGS39806.71 Unspecified NONE
1832005-07-19 14:04PSTYes???USGS39606.71 Unspecified NONE
1822005-07-19 14:00PSTYes???USGS40306.72 Unspecified NONE
1812005-07-19 13:56PSTYes???USGS41106.72 Unspecified NONE
1802005-07-19 13:52PSTYes???USGS40206.72 Unspecified NONE
1792005-07-19 13:46PSTYes???USGS41906.73 Unspecified NONE
1782005-07-19 13:41PSTYes???USGS42106.73 Unspecified NONE
1772005-07-19 13:26PSTYes???USGS43906.75 Unspecified NONE
1762005-07-19 13:21PSTYes???USGS43806.75 Unspecified NONE
1752005-07-19 13:17PSTYes???USGS44206.76 Unspecified NONE
1742005-07-19 13:13PSTYes???USGS45306.76 Unspecified NONE
1732005-07-19 13:08PSTYes???USGS43806.76 Unspecified NONE
1722005-07-19 13:02PSTYes???USGS44206.77 Unspecified NONE
1712005-07-19 12:57PSTYes???USGS46406.77 Unspecified NONE
1702005-07-19 12:53PSTYes???USGS46406.78 Unspecified NONE
1692005-07-19 12:49PSTYes???USGS48206.78 Unspecified NONE
1682005-07-19 12:45PSTYes???USGS46606.78 Unspecified NONE
1672005-07-19 12:41PSTYes???USGS47206.79 Unspecified NONE
1662005-07-19 12:38PSTYes???USGS46706.79 Unspecified NONE
1652005-07-19 12:32PSTYes???USGS46906.80 Unspecified NONE
1642005-07-19 12:29PSTYes???USGS47206.80 Unspecified NONE
1632005-07-19 12:25PSTYes???USGS48806.80 Unspecified NONE
1622005-07-19 12:22PSTYes???USGS49006.80 Unspecified NONE
1612005-07-19 12:18PSTYes???USGS49406.81 Unspecified NONE
1602005-07-19 12:14PSTYes???USGS49706.81 Unspecified NONE
1592005-07-19 12:11PSTYes???USGS50606.81 Unspecified NONE
1582005-07-19 12:08PSTYes???USGS49206.82 Unspecified NONE
1572005-07-19 12:04PSTYes???USGS51306.82 Unspecified NONE
1562005-07-19 12:01PSTYes???USGS51306.82 Unspecified NONE
1552005-07-19 11:40PSTYes???USGS53206.84 Unspecified NONE
1542005-07-19 11:36PSTYes???USGS52206.85 Unspecified NONE
1532005-07-19 11:32PSTYes???USGS51906.85 Unspecified NONE
1522005-07-19 11:29PSTYes???USGS52206.85 Unspecified NONE
1512005-07-19 11:25PSTYes???USGS53106.86 Unspecified NONE
1502005-07-19 11:21PSTYes???USGS52206.86 Unspecified NONE
1492005-07-19 11:17PSTYes???USGS53406.86 Unspecified NONE
1482005-07-19 11:14PSTYes???USGS50606.87 Unspecified NONE
1472005-07-19 11:10PSTYes???USGS52806.87 Unspecified NONE
1462005-07-19 10:18PSTYes???USGS53506.92 Unspecified NONE
1452005-07-19 10:14PSTYes???USGS54106.92 Unspecified NONE
1442005-07-19 10:10PSTYes???USGS54406.92 Unspecified NONE
1432005-07-19 09:49PSTYes???USGS56106.94 Unspecified NONE
1422005-07-19 09:45PSTYes???USGS54706.94 Unspecified NONE
1412005-07-19 09:41PSTYes???USGS54806.95 Unspecified NONE
1402005-07-19 09:37PSTYes???USGS55206.95 Unspecified NONE
1392005-07-19 09:16PSTYes???USGS55406.97 Unspecified NONE
1382005-07-19 09:12PSTYes???USGS54806.97 Unspecified NONE
1372005-07-19 09:07PSTYes???USGS56506.98 Unspecified NONE
1362005-07-19 09:03PSTYes???USGS53806.98 Unspecified NONE
1352005-07-19 09:00PSTYes???USGS55206.98 Unspecified NONE
1342005-07-19 08:55PSTYes???USGS54606.99 Unspecified NONE
1332005-07-19 08:34PSTYes???USGS57207.01 Unspecified NONE
1322005-07-19 08:30PSTYes???USGS55107.01 Unspecified NONE
1312005-07-19 08:27PSTYes???USGS56407.01 Unspecified NONE
1302005-07-19 08:23PSTYes???USGS55807.02 Unspecified NONE
1292005-07-19 08:20PSTYes???USGS57007.02 Unspecified NONE
1282005-07-19 08:16PSTYes???USGS54907.02 Unspecified NONE
1272005-07-19 07:51PSTYes???USGS55707.05 Unspecified NONE
1262005-07-19 07:47PSTYes???USGS55507.05 Unspecified NONE
1252005-07-19 07:42PSTYes???USGS54007.05 Unspecified NONE
1242005-07-19 07:38PSTYes???USGS54607.06 Unspecified NONE
1232005-07-19 07:33PSTYes???USGS56307.06 Unspecified NONE
1222005-07-19 07:29PSTYes???USGS55007.07 Unspecified NONE
1212005-07-19 07:23PSTYes???USGS55307.07 Unspecified NONE
1202005-07-19 07:18PSTYes???USGS54207.07 Unspecified NONE
1192005-07-19 07:11PSTYes???USGS54307.08 Unspecified NONE
1182005-07-19 07:05PSTYes???USGS51907.09 Unspecified NONE
1172005-07-19 07:00PSTYes???USGS53107.09 Unspecified NONE
1162005-07-19 06:55PSTYes???USGS54207.10 Unspecified NONE
1152005-07-19 06:49PSTYes???USGS53407.10 Unspecified NONE
1142005-05-23 11:57PSTYes???USGS1730013.65 Unspecified NONE
1132005-05-23 11:54PSTYes???USGS1800013.66 Unspecified NONE
1122005-05-23 11:51PSTYes???USGS1730013.67 Unspecified NONE
1112005-05-23 11:48PSTYes???USGS1730013.67 Unspecified NONE
1102005-05-23 11:44PSTYes???USGS1760013.67 Unspecified NONE
1092005-05-23 11:40PSTYes???USGS1740013.68 Unspecified NONE
1082004-12-02 16:45PSTYes???USGS21304.97 Unspecified NONE
1072004-12-02 16:42PSTYes???USGS21204.96 Unspecified NONE
1062004-12-02 16:40PSTYes???USGS20304.96 Unspecified NONE
1052004-12-02 16:37PSTYes???USGS21804.95 Unspecified NONE
1042004-12-02 16:33PSTYes???USGS21804.94 Unspecified NONE
1032004-12-02 16:30PSTYes???USGS22704.92 Unspecified NONE
1022004-12-02 16:27PSTYes???USGS22404.91 Unspecified NONE
1012004-12-02 16:24PSTYes???USGS23504.90 Unspecified NONE
1002004-12-02 16:21PSTYes???USGS22804.89 Unspecified NONE
992004-12-02 16:18PSTYes???USGS23204.88 Unspecified NONE
982004-12-02 16:11PSTYes???USGS24404.87 Unspecified NONE
972004-12-02 16:08PSTYes???USGS23604.86 Unspecified NONE
962004-12-02 16:05PSTYes???USGS23304.86 Unspecified NONE
952004-12-02 16:02PSTYes???USGS24804.85 Unspecified NONE
942004-12-02 15:59PSTYes???USGS24404.84 Unspecified NONE
932004-12-02 15:56PSTYes???USGS25304.84 Unspecified NONE
922004-12-02 15:53PSTYes???USGS26204.84 Unspecified NONE
912004-12-02 15:51PSTYes???USGS26004.84 Unspecified NONE
902004-12-02 15:48PSTYes???USGS26104.83 Unspecified NONE
892004-12-02 15:45PSTYes???USGS25504.83 Unspecified NONE
882004-12-02 15:38PSTYes???USGS25604.82 Unspecified NONE
872004-12-02 15:35PSTYes???USGS26304.82 Unspecified NONE
862004-12-02 15:32PSTYes???USGS26004.81 Unspecified NONE
852004-12-02 15:29PSTYes???USGS26404.81 Unspecified NONE
842004-12-02 15:25PSTYes???USGS26904.81 Unspecified NONE
832004-12-02 15:22PSTYes???USGS26604.81 Unspecified NONE
822004-12-02 15:19PSTYes???USGS27404.81 Unspecified NONE
812004-12-02 15:16PSTYes???USGS27604.80 Unspecified NONE
802004-12-02 14:57PSTYes???USGS28004.81 Unspecified NONE
792004-12-02 14:54PSTYes???USGS29004.81 Unspecified NONE
782004-12-02 14:51PSTYes???USGS28704.81 Unspecified NONE
772004-12-02 14:48PSTYes???USGS29204.82 Unspecified NONE
762004-12-02 14:43PSTYes???USGS28504.82 Unspecified NONE
752004-12-02 14:40PSTYes???USGS28604.83 Unspecified NONE
742004-12-02 14:25PSTYes???USGS28204.85 Unspecified NONE
732004-12-02 14:23PSTYes???USGS28904.86 Unspecified NONE
722004-12-02 14:20PSTYes???USGS28604.87 Unspecified NONE
712004-12-02 14:17PSTYes???USGS28804.88 Unspecified NONE
702004-12-02 14:13PSTYes???USGS28604.88 Unspecified NONE
692004-12-02 14:10PSTYes???USGS28404.88 Unspecified NONE
682004-03-17 08:45PSTYes???USGS83105.99 Unspecified NONE
672004-03-17 08:41PSTYes???USGS83606.00 Unspecified NONE
662004-03-17 08:36PSTYes???USGS83206.00 Unspecified NONE
652004-03-17 08:32PSTYes???USGS86206.01 Unspecified NONE
642004-03-17 07:54PSTYes???USGS84906.09 Unspecified NONE
632004-03-17 07:50PSTYes???USGS85006.10 Unspecified NONE
622004-03-17 07:46PSTYes???USGS84506.11 Unspecified NONE
612004-03-17 07:42PSTYes???USGS82906.12 Unspecified NONE
602004-03-17 07:06PSTYes???USGS84406.21 Unspecified NONE
592004-03-17 07:02PSTYes???USGS84106.23 Unspecified NONE
582004-03-17 06:58PSTYes???USGS83506.24 Unspecified NONE
572004-03-17 06:53PSTYes???USGS84806.25 Unspecified NONE
562004-03-17 06:47PSTYes???USGS84306.26 Unspecified NONE
552004-03-17 06:42PSTYes???USGS82806.28 Unspecified NONE
542004-03-17 06:37PSTYes???USGS84106.29 Unspecified NONE
532004-03-17 06:33PSTYes???USGS82706.30 Unspecified NONE
522004-03-17 06:28PSTYes???USGS83406.31 Unspecified NONE
512004-03-17 06:23PSTYes???USGS84906.33 Unspecified NONE
502004-02-28 09:32PSTYes???USGS1660011.72 Unspecified NONE
492004-02-28 09:28PSTYes???USGS1650011.71 Unspecified NONE
482004-02-28 09:23PSTYes???USGS1680011.70 Unspecified NONE
472004-02-28 09:19PSTYes???USGS1660011.69 Unspecified NONE
462004-02-28 09:14PSTYes???USGS1680011.71 Unspecified NONE
452004-02-28 09:09PSTYes???USGS1690011.71 Unspecified NONE
442004-02-02 13:30PSTYes???USGS40305.89 Unspecified NONE
432004-02-02 13:25PSTYes???USGS40605.86 Unspecified NONE
422004-02-02 13:20PSTYes???USGS40005.84 Unspecified NONE
412004-02-02 13:11PSTYes???USGS39505.80 Unspecified NONE
402004-02-02 13:06PSTYes???USGS38005.78 Unspecified NONE
392004-02-02 13:01PSTYes???USGS38905.77 Unspecified NONE
382004-02-02 12:56PSTYes???USGS38905.75 Unspecified NONE
372004-02-02 12:47PSTYes???USGS40305.70 Unspecified NONE
362004-02-02 12:33PSTYes???USGS40505.65 Unspecified NONE
352004-02-02 12:29PSTYes???USGS40405.62 Unspecified NONE
342004-02-02 12:00PSTYes???USGS41205.42 Unspecified NONE
332004-02-02 11:55PSTYes???USGS40305.38 Unspecified NONE
322004-02-02 11:50PSTYes???USGS42205.34 Unspecified NONE
312004-02-02 11:44PSTYes???USGS40805.30 Unspecified NONE
302004-02-02 11:38PSTYes???USGS41405.25 Unspecified NONE
292004-02-02 11:33PSTYes???USGS40505.21 Unspecified NONE
282004-02-02 11:28PSTYes???USGS41505.16 Unspecified NONE
272004-02-02 11:22PSTYes???USGS42405.10 Unspecified NONE
262004-02-02 10:36PSTYes???USGS46204.62 Unspecified NONE
252004-02-02 10:29PSTYes???USGS46504.56 Unspecified NONE
242004-02-02 10:25PSTYes???USGS46904.53 Unspecified NONE
232004-02-02 10:19PSTYes???USGS47604.49 Unspecified NONE
222004-02-02 10:14PSTYes???USGS48104.44 Unspecified NONE
212004-02-02 10:08PSTYes???USGS48504.41 Unspecified NONE
202004-02-02 10:02PSTYes???USGS49404.38 Unspecified NONE
192004-02-02 09:57PSTYes???USGS49104.36 Unspecified NONE
182004-02-02 09:51PSTYes???USGS51204.35 Unspecified NONE
172004-02-02 09:46PSTYes???USGS51504.33 Unspecified NONE
162004-02-02 09:18PSTYes???USGS51104.24 Unspecified NONE
152004-02-02 09:13PSTYes???USGS51404.23 Unspecified NONE
142004-02-02 09:08PSTYes???USGS50004.21 Unspecified NONE
132004-02-02 09:03PSTYes???USGS49804.21 Unspecified NONE
122004-02-02 08:58PSTYes???USGS51104.21 Unspecified NONE
112004-02-02 08:54PSTYes???USGS52404.21 Unspecified NONE
102004-02-02 08:49PSTYes???USGS52904.21 Unspecified NONE
92004-02-02 08:45PSTYes???USGS51504.20 Unspecified NONE
82004-02-02 08:41PSTYes???USGS52204.20 Unspecified NONE
72004-02-02 08:18PSTYes???USGS50904.19 Unspecified NONE
62004-02-02 08:14PSTYes???USGS51304.19 Unspecified NONE
52004-02-02 08:10PSTYes???USGS51504.19 Unspecified NONE
42004-02-02 08:04PSTYes???USGS51904.19 Unspecified NONE
32004-02-02 08:00PSTYes???USGS50604.20 Unspecified NONE
22004-02-02 07:56PSTYes???USGS49904.20 Unspecified NONE
12004-02-02 07:52PSTYes???USGS50404.20 Unspecified NONE